PORTS® Data Listing: 8638614 Willoughby Degaussing Station, VA

CO-OPS RAW PORTS DATA

************************      PRELIMINARY DATA      ************************** 

     THIS RAW DATA HAS NOT BEEN SUBJECT TO THE NATIONAL OCEAN SERVICE'S        
     QUALITY CONTROL OR QUALITY ASSURANCE PROCEDURES AND DOES NOT MEET         
     THE CRITERIA AND STANDARDS OF OFFICIAL NATIONAL OCEAN SERVICE             
     DATA.  IT IS RELEASED FOR LIMITED PUBLIC USE AS PRELIMINARY DATA TO       
     BE USED ONLY WITH APPROPRIATE CAUTION.                                    

************************      PRELIMINARY DATA      ************************** 


       CD   -   Calendar date
       T    -   Time
       TZ   -   Timezone
       PW   -   Predicted water level (feet above MLLW)
       OW   -   Observed water level (feet above MLLW)
       WS   -   Wind speed (knots)
       WD   -   Wind direction (degrees true)
       WG   -   Wind gust (knots)
       AT   -   Air temperature (degrees farenheit)
       WT   -   Water temperature (degrees farenheit)
       AP   -   Air pressure (millibars)
       SA   -   Salinty (PSU - Practical Salinity Units)
       SG   -   Specific gravity
       RH   -   Relative humidity
       AG   -   Air gap (feet)
       VI   -   Visibility (nautical miles)

       ** NOTE **
       A variable that has its data fields filled with "9"s, indicates that
       data was not collected for that sample period.
       **********


STATION NAME: Willoughby Degaussing Station (8638614)
****************************************************************************************************
    CD       T    TZ    PW     OW    WS   WD   WG    AT    WT    AP    SA    SG     RH    AG   VI
****************************************************************************************************
2019/09/16 23:48 EDT  -99.99 -99.99    7  136    8  75.2 -99.9 1014.5 -9.9 -9.999 -99.9 -99.99 -9.99
2019/09/16 23:54 EDT  -99.99 -99.99    6  140    8  75.4 -99.9 1014.5 -9.9 -9.999 -99.9 -99.99 -9.99
2019/09/17 00:00 EDT  -99.99 -99.99    5  134    7  75.2 -99.9 1014.5 -9.9 -9.999 -99.9 -99.99 -9.99
2019/09/17 00:06 EDT  -99.99 -99.99    5  130    6  75.0 -99.9 1014.4 -9.9 -9.999 -99.9 -99.99 -9.99
2019/09/17 00:12 EDT  -99.99 -99.99    5  139    7  75.0 -99.9 1014.4 -9.9 -9.999 -99.9 -99.99 -9.99
2019/09/17 00:18 EDT  -99.99 -99.99    3  138    5  75.2 -99.9 1014.4 -9.9 -9.999 -99.9 -99.99 -9.99
2019/09/17 00:24 EDT  -99.99 -99.99    5  139    5  75.2 -99.9 1014.4 -9.9 -9.999 -99.9 -99.99 -9.99
2019/09/17 00:30 EDT  -99.99 -99.99    5  138    6  75.2 -99.9 1014.5 -9.9 -9.999 -99.9 -99.99 -9.99
2019/09/17 00:36 EDT  -99.99 -99.99    5  138    6  75.2 -99.9 1014.5 -9.9 -9.999 -99.9 -99.99 -9.99
2019/09/17 00:42 EDT  -99.99 -99.99    5  143    6  75.0 -99.9 1014.5 -9.9 -9.999 -99.9 -99.99 -9.99
2019/09/17 00:48 EDT  -99.99 -99.99    4  146    6  75.0 -99.9 1014.5 -9.9 -9.999 -99.9 -99.99 -9.99
2019/09/17 00:54 EDT  -99.99 -99.99    4  146    5  74.8 -99.9 1014.5 -9.9 -9.999 -99.9 -99.99 -9.99
2019/09/17 01:00 EDT  -99.99 -99.99    4  139    5  74.8 -99.9 1014.5 -9.9 -9.999 -99.9 -99.99 -9.99
2019/09/17 01:06 EDT  -99.99 -99.99    4  142    4  74.7 -99.9 1014.5 -9.9 -9.999 -99.9 -99.99 -9.99
2019/09/17 01:12 EDT  -99.99 -99.99    4  144    4  74.7 -99.9 1014.5 -9.9 -9.999 -99.9 -99.99 -9.99
2019/09/17 01:18 EDT  -99.99 -99.99    4  138    4  74.7 -99.9 1014.5 -9.9 -9.999 -99.9 -99.99 -9.99
2019/09/17 01:24 EDT  -99.99 -99.99    5  136    5  74.7 -99.9 1014.4 -9.9 -9.999 -99.9 -99.99 -9.99
2019/09/17 01:30 EDT  -99.99 -99.99    5  131    6  74.8 -99.9 1014.5 -9.9 -9.999 -99.9 -99.99 -9.99
2019/09/17 01:36 EDT  -99.99 -99.99    4  138    5  74.8 -99.9 1014.6 -9.9 -9.999 -99.9 -99.99 -9.99
2019/09/17 01:42 EDT  -99.99 -99.99    5  126    6  74.7 -99.9 1014.6 -9.9 -9.999 -99.9 -99.99 -9.99
2019/09/17 01:48 EDT  -99.99 -99.99    4  131    5  74.8 -99.9 1014.6 -9.9 -9.999 -99.9 -99.99 -9.99
2019/09/17 01:54 EDT  -99.99 -99.99    5  116    5  74.7 -99.9 1014.5 -9.9 -9.999 -99.9 -99.99 -9.99
2019/09/17 02:00 EDT  -99.99 -99.99    5  108    6  74.7 -99.9 1014.4 -9.9 -9.999 -99.9 -99.99 -9.99
2019/09/17 02:06 EDT  -99.99 -99.99    4  109    6  74.7 -99.9 1014.4 -9.9 -9.999 -99.9 -99.99 -9.99
2019/09/17 02:12 EDT  -99.99 -99.99    5  117    5  74.7 -99.9 1014.4 -9.9 -9.999 -99.9 -99.99 -9.99
2019/09/17 02:18 EDT  -99.99 -99.99    4  112    5  74.7 -99.9 1014.4 -9.9 -9.999 -99.9 -99.99 -9.99
2019/09/17 02:24 EDT  -99.99 -99.99    3  115    4  74.8 -99.9 1014.4 -9.9 -9.999 -99.9 -99.99 -9.99
2019/09/17 02:30 EDT  -99.99 -99.99    2  115    3  75.0 -99.9 1014.3 -9.9 -9.999 -99.9 -99.99 -9.99
2019/09/17 02:36 EDT  -99.99 -99.99    1   72    3  74.8 -99.9 1014.3 -9.9 -9.999 -99.9 -99.99 -9.99
2019/09/17 02:42 EDT  -99.99 -99.99    1   75    3  75.0 -99.9 1014.2 -9.9 -9.999 -99.9 -99.99 -9.99
2019/09/17 02:48 EDT  -99.99 -99.99    2   69    3  75.2 -99.9 1014.2 -9.9 -9.999 -99.9 -99.99 -9.99
2019/09/17 02:54 EDT  -99.99 -99.99    3   91    3  75.6 -99.9 1014.1 -9.9 -9.999 -99.9 -99.99 -9.99
2019/09/17 03:00 EDT  -99.99 -99.99    3   92    4  75.6 -99.9 1014.1 -9.9 -9.999 -99.9 -99.99 -9.99
2019/09/17 03:06 EDT  -99.99 -99.99    4   81    5  75.6 -99.9 1014.0 -9.9 -9.999 -99.9 -99.99 -9.99
2019/09/17 03:12 EDT  -99.99 -99.99    3   69    4  75.7 -99.9 1014.0 -9.9 -9.999 -99.9 -99.99 -9.99
2019/09/17 03:18 EDT  -99.99 -99.99    3   43    4  75.9 -99.9 1013.9 -9.9 -9.999 -99.9 -99.99 -9.99
2019/09/17 03:24 EDT  -99.99 -99.99    4   53    5  75.9 -99.9 1013.8 -9.9 -9.999 -99.9 -99.99 -9.99
2019/09/17 03:30 EDT  -99.99 -99.99    4   39    5  75.9 -99.9 1013.8 -9.9 -9.999 -99.9 -99.99 -9.99
2019/09/17 03:36 EDT  -99.99 -99.99    5   46    6  76.1 -99.9 1013.9 -9.9 -9.999 -99.9 -99.99 -9.99
2019/09/17 03:42 EDT  -99.99 -99.99    4   54    5  76.1 -99.9 1013.8 -9.9 -9.999 -99.9 -99.99 -9.99
2019/09/17 03:48 EDT  -99.99 -99.99    5   40    6  76.3 -99.9 1013.8 -9.9 -9.999 -99.9 -99.99 -9.99
2019/09/17 03:54 EDT  -99.99 -99.99    6  354    7  75.7 -99.9 1013.8 -9.9 -9.999 -99.9 -99.99 -9.99
2019/09/17 04:00 EDT  -99.99 -99.99    6  352    7  75.6 -99.9 1013.8 -9.9 -9.999 -99.9 -99.99 -9.99
2019/09/17 04:06 EDT  -99.99 -99.99    6  352    7  75.2 -99.9 1013.9 -9.9 -9.999 -99.9 -99.99 -9.99
2019/09/17 04:12 EDT  -99.99 -99.99    6    1    6  75.4 -99.9 1013.9 -9.9 -9.999 -99.9 -99.99 -9.99
2019/09/17 04:18 EDT  -99.99 -99.99    6    8    7  75.6 -99.9 1014.0 -9.9 -9.999 -99.9 -99.99 -9.99
2019/09/17 04:24 EDT  -99.99 -99.99    6    2    7  75.4 -99.9 1014.0 -9.9 -9.999 -99.9 -99.99 -9.99
2019/09/17 04:30 EDT  -99.99 -99.99    5    8    7  75.4 -99.9 1013.9 -9.9 -9.999 -99.9 -99.99 -9.99
2019/09/17 04:36 EDT  -99.99 -99.99    5   18    6  75.6 -99.9 1013.9 -9.9 -9.999 -99.9 -99.99 -9.99
2019/09/17 04:42 EDT  -99.99 -99.99    6   21    7  75.7 -99.9 1013.9 -9.9 -9.999 -99.9 -99.99 -9.99
2019/09/17 04:48 EDT  -99.99 -99.99    5   17    6  75.7 -99.9 1013.8 -9.9 -9.999 -99.9 -99.99 -9.99
2019/09/17 04:54 EDT  -99.99 -99.99    6   17    7  75.7 -99.9 1013.8 -9.9 -9.999 -99.9 -99.99 -9.99
2019/09/17 05:00 EDT  -99.99 -99.99    9   35   10  76.3 -99.9 1013.9 -9.9 -9.999 -99.9 -99.99 -9.99
2019/09/17 05:06 EDT  -99.99 -99.99   10   36   11  76.1 -99.9 1013.9 -9.9 -9.999 -99.9 -99.99 -9.99
2019/09/17 05:12 EDT  -99.99 -99.99   10   36   12  76.1 -99.9 1013.9 -9.9 -9.999 -99.9 -99.99 -9.99
2019/09/17 05:18 EDT  -99.99 -99.99   12   27   13  76.1 -99.9 1013.9 -9.9 -9.999 -99.9 -99.99 -9.99
2019/09/17 05:24 EDT  -99.99 -99.99   11   33   13  76.1 -99.9 1013.9 -9.9 -9.999 -99.9 -99.99 -9.99
2019/09/17 05:30 EDT  -99.99 -99.99   10   35   12  76.3 -99.9 1013.9 -9.9 -9.999 -99.9 -99.99 -9.99
2019/09/17 05:36 EDT  -99.99 -99.99   11   33   12  76.3 -99.9 1014.0 -9.9 -9.999 -99.9 -99.99 -9.99
2019/09/17 05:42 EDT  -99.99 -99.99   12   34   13  76.3 -99.9 1014.2 -9.9 -9.999 -99.9 -99.99 -9.99
2019/09/17 05:48 EDT  -99.99 -99.99   11   38   12  76.1 -99.9 1014.2 -9.9 -9.999 -99.9 -99.99 -9.99
2019/09/17 05:54 EDT  -99.99 -99.99   12   38   14  76.3 -99.9 1014.4 -9.9 -9.999 -99.9 -99.99 -9.99
2019/09/17 06:00 EDT  -99.99 -99.99   13   43   15  76.1 -99.9 1014.5 -9.9 -9.999 -99.9 -99.99 -9.99
2019/09/17 06:06 EDT  -99.99 -99.99   13   42   14  76.1 -99.9 1014.6 -9.9 -9.999 -99.9 -99.99 -9.99
2019/09/17 06:12 EDT  -99.99 -99.99   14   39   16  76.1 -99.9 1014.6 -9.9 -9.999 -99.9 -99.99 -9.99
2019/09/17 06:18 EDT  -99.99 -99.99   14   35   16  76.1 -99.9 1014.7 -9.9 -9.999 -99.9 -99.99 -9.99
2019/09/17 06:24 EDT  -99.99 -99.99   13   50   16  75.7 -99.9 1014.7 -9.9 -9.999 -99.9 -99.99 -9.99
2019/09/17 06:30 EDT  -99.99 -99.99   12   55   15  75.7 -99.9 1014.7 -9.9 -9.999 -99.9 -99.99 -9.99
2019/09/17 06:36 EDT  -99.99 -99.99   11   69   14  75.6 -99.9 1014.7 -9.9 -9.999 -99.9 -99.99 -9.99
2019/09/17 06:42 EDT  -99.99 -99.99   12   66   14  75.6 -99.9 1014.8 -9.9 -9.999 -99.9 -99.99 -9.99
2019/09/17 06:48 EDT  -99.99 -99.99   12   57   15  75.6 -99.9 1014.8 -9.9 -9.999 -99.9 -99.99 -9.99
2019/09/17 06:54 EDT  -99.99 -99.99   12   65   17  75.7 -99.9 1014.8 -9.9 -9.999 -99.9 -99.99 -9.99
2019/09/17 07:00 EDT  -99.99 -99.99   11   74   15  75.6 -99.9 1014.8 -9.9 -9.999 -99.9 -99.99 -9.99
2019/09/17 07:06 EDT  -99.99 -99.99   13   77   15  75.6 -99.9 1014.9 -9.9 -9.999 -99.9 -99.99 -9.99
2019/09/17 07:12 EDT  -99.99 -99.99   12   66   15  75.6 -99.9 1015.0 -9.9 -9.999 -99.9 -99.99 -9.99
2019/09/17 07:18 EDT  -99.99 -99.99   13   67   16  75.6 -99.9 1015.1 -9.9 -9.999 -99.9 -99.99 -9.99
2019/09/17 07:24 EDT  -99.99 -99.99   12   65   15  75.6 -99.9 1015.1 -9.9 -9.999 -99.9 -99.99 -9.99
2019/09/17 07:30 EDT  -99.99 -99.99   14   68   16  75.7 -99.9 1015.2 -9.9 -9.999 -99.9 -99.99 -9.99
2019/09/17 07:36 EDT  -99.99 -99.99   14   73   16  75.7 -99.9 1015.3 -9.9 -9.999 -99.9 -99.99 -9.99
2019/09/17 07:42 EDT  -99.99 -99.99   13   69   15  75.9 -99.9 1015.3 -9.9 -9.999 -99.9 -99.99 -9.99
2019/09/17 07:48 EDT  -99.99 -99.99   16   70   18  75.9 -99.9 1015.3 -9.9 -9.999 -99.9 -99.99 -9.99
2019/09/17 07:54 EDT  -99.99 -99.99   15   61   18  75.9 -99.9 1015.5 -9.9 -9.999 -99.9 -99.99 -9.99
2019/09/17 08:00 EDT  -99.99 -99.99   15   71   17  75.9 -99.9 1015.5 -9.9 -9.999 -99.9 -99.99 -9.99
2019/09/17 08:06 EDT  -99.99 -99.99   17   70   19  75.9 -99.9 1015.6 -9.9 -9.999 -99.9 -99.99 -9.99
2019/09/17 08:12 EDT  -99.99 -99.99   16   78   20  75.9 -99.9 1015.7 -9.9 -9.999 -99.9 -99.99 -9.99
2019/09/17 08:18 EDT  -99.99 -99.99   17   72   19  76.1 -99.9 1015.7 -9.9 -9.999 -99.9 -99.99 -9.99
2019/09/17 08:24 EDT  -99.99 -99.99   18   75   20  75.9 -99.9 1015.6 -9.9 -9.999 -99.9 -99.99 -9.99
2019/09/17 08:30 EDT  -99.99 -99.99   17   77   20  75.9 -99.9 1015.6 -9.9 -9.999 -99.9 -99.99 -9.99
2019/09/17 08:36 EDT  -99.99 -99.99   17   75   21  76.1 -99.9 1015.6 -9.9 -9.999 -99.9 -99.99 -9.99
2019/09/17 08:42 EDT  -99.99 -99.99   17   73   20  76.1 -99.9 1015.7 -9.9 -9.999 -99.9 -99.99 -9.99
2019/09/17 08:48 EDT  -99.99 -99.99   15   65   20  76.1 -99.9 1015.8 -9.9 -9.999 -99.9 -99.99 -9.99
2019/09/17 08:54 EDT  -99.99 -99.99   17   72   19  76.1 -99.9 1015.8 -9.9 -9.999 -99.9 -99.99 -9.99
2019/09/17 09:00 EDT  -99.99 -99.99   15   70   19  76.3 -99.9 1016.0 -9.9 -9.999 -99.9 -99.99 -9.99
2019/09/17 09:06 EDT  -99.99 -99.99   18   71   20  76.5 -99.9 1016.0 -9.9 -9.999 -99.9 -99.99 -9.99
2019/09/17 09:12 EDT  -99.99 -99.99   16   74   20  76.3 -99.9 1015.9 -9.9 -9.999 -99.9 -99.99 -9.99
2019/09/17 09:18 EDT  -99.99 -99.99   18   77   20  76.3 -99.9 1015.8 -9.9 -9.999 -99.9 -99.99 -9.99
2019/09/17 09:24 EDT  -99.99 -99.99   17   77   21  76.3 -99.9 1015.9 -9.9 -9.999 -99.9 -99.99 -9.99
2019/09/17 09:30 EDT  -99.99 -99.99   17   79   20  76.1 -99.9 1015.9 -9.9 -9.999 -99.9 -99.99 -9.99
2019/09/17 09:36 EDT  -99.99 -99.99   18   82   20  75.9 -99.9 1015.9 -9.9 -9.999 -99.9 -99.99 -9.99
2019/09/17 09:42 EDT  -99.99 -99.99   16   80   21  75.9 -99.9 1016.1 -9.9 -9.999 -99.9 -99.99 -9.99
2019/09/17 09:48 EDT  -99.99 -99.99   17   76   21  76.1 -99.9 1016.1 -9.9 -9.999 -99.9 -99.99 -9.99
2019/09/17 09:54 EDT  -99.99 -99.99   17   74   20  76.1 -99.9 1016.2 -9.9 -9.999 -99.9 -99.99 -9.99
2019/09/17 10:00 EDT  -99.99 -99.99   17   76   19  76.1 -99.9 1016.3 -9.9 -9.999 -99.9 -99.99 -9.99
2019/09/17 10:06 EDT  -99.99 -99.99   18   74   20  76.3 -99.9 1016.3 -9.9 -9.999 -99.9 -99.99 -9.99
2019/09/17 10:12 EDT  -99.99 -99.99   17   77   21  76.3 -99.9 1016.4 -9.9 -9.999 -99.9 -99.99 -9.99
2019/09/17 10:18 EDT  -99.99 -99.99   17   86   20  75.9 -99.9 1016.5 -9.9 -9.999 -99.9 -99.99 -9.99
2019/09/17 10:24 EDT  -99.99 -99.99   18   83   21  75.9 -99.9 1016.5 -9.9 -9.999 -99.9 -99.99 -9.99
2019/09/17 10:30 EDT  -99.99 -99.99   17   84   20  75.9 -99.9 1016.4 -9.9 -9.999 -99.9 -99.99 -9.99
2019/09/17 10:36 EDT  -99.99 -99.99   17   77   19  75.9 -99.9 1016.5 -9.9 -9.999 -99.9 -99.99 -9.99
2019/09/17 10:42 EDT  -99.99 -99.99   17   78   20  76.1 -99.9 1016.6 -9.9 -9.999 -99.9 -99.99 -9.99
2019/09/17 10:48 EDT  -99.99 -99.99   18   79   19  75.9 -99.9 1016.7 -9.9 -9.999 -99.9 -99.99 -9.99
2019/09/17 10:54 EDT  -99.99 -99.99   17   87   20  75.9 -99.9 1016.6 -9.9 -9.999 -99.9 -99.99 -9.99
2019/09/17 11:00 EDT  -99.99 -99.99   16   81   18  75.9 -99.9 1016.7 -9.9 -9.999 -99.9 -99.99 -9.99
2019/09/17 11:06 EDT  -99.99 -99.99   17   73   19  75.9 -99.9 1016.6 -9.9 -9.999 -99.9 -99.99 -9.99
2019/09/17 11:12 EDT  -99.99 -99.99   16   78   19  75.7 -99.9 1016.7 -9.9 -9.999 -99.9 -99.99 -9.99
2019/09/17 11:18 EDT  -99.99 -99.99   16   73   20  75.9 -99.9 1016.7 -9.9 -9.999 -99.9 -99.99 -9.99
2019/09/17 11:24 EDT  -99.99 -99.99   18   72   21  75.7 -99.9 1016.7 -9.9 -9.999 -99.9 -99.99 -9.99
2019/09/17 11:30 EDT  -99.99 -99.99   17   66   21  75.7 -99.9 1016.8 -9.9 -9.999 -99.9 -99.99 -9.99
2019/09/17 11:36 EDT  -99.99 -99.99   17   61   21  75.7 -99.9 1016.8 -9.9 -9.999 -99.9 -99.99 -9.99
2019/09/17 11:42 EDT  -99.99 -99.99   17   67   20  75.7 -99.9 1016.8 -9.9 -9.999 -99.9 -99.99 -9.99
2019/09/17 11:48 EDT  -99.99 -99.99   17   67   20  75.7 -99.9 1016.7 -9.9 -9.999 -99.9 -99.99 -9.99
2019/09/17 11:54 EDT  -99.99 -99.99   17   73   21  75.7 -99.9 1016.8 -9.9 -9.999 -99.9 -99.99 -9.99
2019/09/17 12:00 EDT  -99.99 -99.99   17   70   21  75.7 -99.9 1016.9 -9.9 -9.999 -99.9 -99.99 -9.99
2019/09/17 12:06 EDT  -99.99 -99.99   19   73   22  75.4 -99.9 1016.8 -9.9 -9.999 -99.9 -99.99 -9.99
2019/09/17 12:12 EDT  -99.99 -99.99   18   72   21  75.4 -99.9 1016.8 -9.9 -9.999 -99.9 -99.99 -9.99
2019/09/17 12:18 EDT  -99.99 -99.99   17   69   20  75.6 -99.9 1016.8 -9.9 -9.999 -99.9 -99.99 -9.99
2019/09/17 12:24 EDT  -99.99 -99.99   17   72   20  75.6 -99.9 1016.8 -9.9 -9.999 -99.9 -99.99 -9.99
2019/09/17 12:30 EDT  -99.99 -99.99   18   75   20  75.4 -99.9 1016.8 -9.9 -9.999 -99.9 -99.99 -9.99
2019/09/17 12:36 EDT  -99.99 -99.99   16   66   19  75.4 -99.9 1016.8 -9.9 -9.999 -99.9 -99.99 -9.99
2019/09/17 12:42 EDT  -99.99 -99.99   16   72   20  75.4 -99.9 1016.9 -9.9 -9.999 -99.9 -99.99 -9.99
2019/09/17 12:48 EDT  -99.99 -99.99   15   67   19  75.4 -99.9 1017.0 -9.9 -9.999 -99.9 -99.99 -9.99
2019/09/17 12:54 EDT  -99.99 -99.99   16   58   18  75.4 -99.9 1017.0 -9.9 -9.999 -99.9 -99.99 -9.99
2019/09/17 13:00 EDT  -99.99 -99.99   15   60   19  75.4 -99.9 1017.0 -9.9 -9.999 -99.9 -99.99 -9.99
2019/09/17 13:06 EDT  -99.99 -99.99   15   66   20  75.6 -99.9 1017.0 -9.9 -9.999 -99.9 -99.99 -9.99
2019/09/17 13:12 EDT  -99.99 -99.99   16   66   19  75.6 -99.9 1016.9 -9.9 -9.999 -99.9 -99.99 -9.99
2019/09/17 13:18 EDT  -99.99 -99.99   14   64   18  75.4 -99.9 1016.9 -9.9 -9.999 -99.9 -99.99 -9.99
2019/09/17 13:24 EDT  -99.99 -99.99   14   63   17  75.4 -99.9 1017.0 -9.9 -9.999 -99.9 -99.99 -9.99
2019/09/17 13:30 EDT  -99.99 -99.99   17   55   19  75.2 -99.9 1017.0 -9.9 -9.999 -99.9 -99.99 -9.99
2019/09/17 13:36 EDT  -99.99 -99.99   16   68   19  75.4 -99.9 1016.9 -9.9 -9.999 -99.9 -99.99 -9.99
2019/09/17 13:42 EDT  -99.99 -99.99   14   66   18  75.6 -99.9 1017.0 -9.9 -9.999 -99.9 -99.99 -9.99
2019/09/17 13:48 EDT  -99.99 -99.99   16   55   18  75.4 -99.9 1017.0 -9.9 -9.999 -99.9 -99.99 -9.99
2019/09/17 13:54 EDT  -99.99 -99.99   15   60   19  75.2 -99.9 1017.0 -9.9 -9.999 -99.9 -99.99 -9.99
2019/09/17 14:00 EDT  -99.99 -99.99   16   60   19  75.0 -99.9 1017.0 -9.9 -9.999 -99.9 -99.99 -9.99
2019/09/17 14:06 EDT  -99.99 -99.99   15   53   18  75.0 -99.9 1016.9 -9.9 -9.999 -99.9 -99.99 -9.99
2019/09/17 14:12 EDT  -99.99 -99.99   16   64   18  75.0 -99.9 1016.8 -9.9 -9.999 -99.9 -99.99 -9.99
2019/09/17 14:18 EDT  -99.99 -99.99   16   60   19  74.8 -99.9 1016.8 -9.9 -9.999 -99.9 -99.99 -9.99
2019/09/17 14:24 EDT  -99.99 -99.99   16   63   21  75.4 -99.9 1016.7 -9.9 -9.999 -99.9 -99.99 -9.99
2019/09/17 14:30 EDT  -99.99 -99.99   16   68   19  75.2 -99.9 1016.7 -9.9 -9.999 -99.9 -99.99 -9.99
2019/09/17 14:36 EDT  -99.99 -99.99   16   61   18  75.0 -99.9 1016.7 -9.9 -9.999 -99.9 -99.99 -9.99
2019/09/17 14:42 EDT  -99.99 -99.99   17   58   20  74.8 -99.9 1016.8 -9.9 -9.999 -99.9 -99.99 -9.99
2019/09/17 14:48 EDT  -99.99 -99.99   16   59   18  75.0 -99.9 1016.8 -9.9 -9.999 -99.9 -99.99 -9.99
2019/09/17 14:54 EDT  -99.99 -99.99   16   67   19  75.0 -99.9 1016.7 -9.9 -9.999 -99.9 -99.99 -9.99
2019/09/17 15:00 EDT  -99.99 -99.99   16   63   20  75.0 -99.9 1016.8 -9.9 -9.999 -99.9 -99.99 -9.99
2019/09/17 15:06 EDT  -99.99 -99.99   17   66   20  74.8 -99.9 1016.7 -9.9 -9.999 -99.9 -99.99 -9.99
2019/09/17 15:12 EDT  -99.99 -99.99   17   57   20  75.0 -99.9 1016.8 -9.9 -9.999 -99.9 -99.99 -9.99
2019/09/17 15:18 EDT  -99.99 -99.99   15   56   19  75.2 -99.9 1016.8 -9.9 -9.999 -99.9 -99.99 -9.99
2019/09/17 15:24 EDT  -99.99 -99.99   16   65   18  74.8 -99.9 1016.6 -9.9 -9.999 -99.9 -99.99 -9.99
2019/09/17 15:30 EDT  -99.99 -99.99   16   60   20  74.8 -99.9 1016.7 -9.9 -9.999 -99.9 -99.99 -9.99
2019/09/17 15:36 EDT  -99.99 -99.99   17   55   20  74.7 -99.9 1016.8 -9.9 -9.999 -99.9 -99.99 -9.99
2019/09/17 15:42 EDT  -99.99 -99.99   16   64   18  74.7 -99.9 1016.7 -9.9 -9.999 -99.9 -99.99 -9.99
2019/09/17 15:48 EDT  -99.99 -99.99   14   61   19  74.8 -99.9 1016.7 -9.9 -9.999 -99.9 -99.99 -9.99
2019/09/17 15:54 EDT  -99.99 -99.99   17   54   20  74.7 -99.9 1016.6 -9.9 -9.999 -99.9 -99.99 -9.99
2019/09/17 16:00 EDT  -99.99 -99.99   15   62   18  74.7 -99.9 1016.6 -9.9 -9.999 -99.9 -99.99 -9.99
2019/09/17 16:06 EDT  -99.99 -99.99   14   62   18  74.5 -99.9 1016.5 -9.9 -9.999 -99.9 -99.99 -9.99
2019/09/17 16:12 EDT  -99.99 -99.99   13   68   18  74.5 -99.9 1016.5 -9.9 -9.999 -99.9 -99.99 -9.99
2019/09/17 16:18 EDT  -99.99 -99.99   16   61   17  74.3 -99.9 1016.4 -9.9 -9.999 -99.9 -99.99 -9.99
2019/09/17 16:24 EDT  -99.99 -99.99   15   60   18  74.3 -99.9 1016.5 -9.9 -9.999 -99.9 -99.99 -9.99
2019/09/17 16:30 EDT  -99.99 -99.99   14   63   19  74.5 -99.9 1016.4 -9.9 -9.999 -99.9 -99.99 -9.99
2019/09/17 16:36 EDT  -99.99 -99.99   14   63   18  74.1 -99.9 1016.5 -9.9 -9.999 -99.9 -99.99 -9.99
2019/09/17 16:42 EDT  -99.99 -99.99   14   61   18  74.3 -99.9 1016.5 -9.9 -9.999 -99.9 -99.99 -9.99
2019/09/17 16:48 EDT  -99.99 -99.99   15   63   18  74.1 -99.9 1016.5 -9.9 -9.999 -99.9 -99.99 -9.99
2019/09/17 16:54 EDT  -99.99 -99.99   17   66   20  73.8 -99.9 1016.5 -9.9 -9.999 -99.9 -99.99 -9.99
2019/09/17 17:00 EDT  -99.99 -99.99   17   61   20  73.9 -99.9 1016.6 -9.9 -9.999 -99.9 -99.99 -9.99
2019/09/17 17:06 EDT  -99.99 -99.99   17   62   20  73.9 -99.9 1016.6 -9.9 -9.999 -99.9 -99.99 -9.99
2019/09/17 17:12 EDT  -99.99 -99.99   17   66   22  74.1 -99.9 1016.7 -9.9 -9.999 -99.9 -99.99 -9.99
2019/09/17 17:18 EDT  -99.99 -99.99   18   68   22  74.1 -99.9 1016.7 -9.9 -9.999 -99.9 -99.99 -9.99
2019/09/17 17:24 EDT  -99.99 -99.99   17   68   20  74.3 -99.9 1016.8 -9.9 -9.999 -99.9 -99.99 -9.99
2019/09/17 17:30 EDT  -99.99 -99.99   17   65   21  74.3 -99.9 1016.8 -9.9 -9.999 -99.9 -99.99 -9.99
2019/09/17 17:36 EDT  -99.99 -99.99   18   63   21  73.9 -99.9 1016.9 -9.9 -9.999 -99.9 -99.99 -9.99
2019/09/17 17:42 EDT  -99.99 -99.99   18   62   21  73.9 -99.9 1016.9 -9.9 -9.999 -99.9 -99.99 -9.99
2019/09/17 17:48 EDT  -99.99 -99.99   18   59   23  73.9 -99.9 1017.0 -9.9 -9.999 -99.9 -99.99 -9.99
2019/09/17 17:54 EDT  -99.99 -99.99   19   63   24  73.8 -99.9 1017.0 -9.9 -9.999 -99.9 -99.99 -9.99
2019/09/17 18:00 EDT  -99.99 -99.99   18   63   23  73.6 -99.9 1017.0 -9.9 -9.999 -99.9 -99.99 -9.99
2019/09/17 18:06 EDT  -99.99 -99.99   19   54   24  73.4 -99.9 1017.2 -9.9 -9.999 -99.9 -99.99 -9.99
2019/09/17 18:12 EDT  -99.99 -99.99   19   50   24  73.2 -99.9 1017.2 -9.9 -9.999 -99.9 -99.99 -9.99
2019/09/17 18:18 EDT  -99.99 -99.99   17   55   20  73.0 -99.9 1017.3 -9.9 -9.999 -99.9 -99.99 -9.99
2019/09/17 18:24 EDT  -99.99 -99.99   17   54   21  73.2 -99.9 1017.4 -9.9 -9.999 -99.9 -99.99 -9.99
2019/09/17 18:30 EDT  -99.99 -99.99   19   49   22  73.0 -99.9 1017.5 -9.9 -9.999 -99.9 -99.99 -9.99
2019/09/17 18:36 EDT  -99.99 -99.99   16   59   19  73.0 -99.9 1017.5 -9.9 -9.999 -99.9 -99.99 -9.99
2019/09/17 18:42 EDT  -99.99 -99.99   17   60   20  73.0 -99.9 1017.5 -9.9 -9.999 -99.9 -99.99 -9.99
2019/09/17 18:48 EDT  -99.99 -99.99   15   61   20  72.9 -99.9 1017.5 -9.9 -9.999 -99.9 -99.99 -9.99
2019/09/17 18:54 EDT  -99.99 -99.99   15   60   20  72.9 -99.9 1017.5 -9.9 -9.999 -99.9 -99.99 -9.99
2019/09/17 19:00 EDT  -99.99 -99.99   17   54   21  72.9 -99.9 1017.6 -9.9 -9.999 -99.9 -99.99 -9.99
2019/09/17 19:06 EDT  -99.99 -99.99   15   60   20  72.9 -99.9 1017.6 -9.9 -9.999 -99.9 -99.99 -9.99
2019/09/17 19:12 EDT  -99.99 -99.99   17   61   20  72.9 -99.9 1017.6 -9.9 -9.999 -99.9 -99.99 -9.99
2019/09/17 19:18 EDT  -99.99 -99.99   17   69   20  72.9 -99.9 1017.4 -9.9 -9.999 -99.9 -99.99 -9.99
2019/09/17 19:24 EDT  -99.99 -99.99   14   60   19  72.7 -99.9 1017.5 -9.9 -9.999 -99.9 -99.99 -9.99
2019/09/17 19:30 EDT  -99.99 -99.99   16   58   20  72.5 -99.9 1017.4 -9.9 -9.999 -99.9 -99.99 -9.99
2019/09/17 19:36 EDT  -99.99 -99.99   17   48   19  72.5 -99.9 1017.5 -9.9 -9.999 -99.9 -99.99 -9.99
2019/09/17 19:42 EDT  -99.99 -99.99   15   58   19  72.5 -99.9 1017.5 -9.9 -9.999 -99.9 -99.99 -9.99
2019/09/17 19:48 EDT  -99.99 -99.99   17   50   20  72.7 -99.9 1017.6 -9.9 -9.999 -99.9 -99.99 -9.99
2019/09/17 19:54 EDT  -99.99 -99.99   17   51   21  72.5 -99.9 1017.7 -9.9 -9.999 -99.9 -99.99 -9.99
2019/09/17 20:00 EDT  -99.99 -99.99   17   50   22  72.3 -99.9 1017.7 -9.9 -9.999 -99.9 -99.99 -9.99
2019/09/17 20:06 EDT  -99.99 -99.99   16   52   21  72.3 -99.9 1017.8 -9.9 -9.999 -99.9 -99.99 -9.99
2019/09/17 20:12 EDT  -99.99 -99.99   19   41   21  72.3 -99.9 1017.9 -9.9 -9.999 -99.9 -99.99 -9.99
2019/09/17 20:18 EDT  -99.99 -99.99   18   43   22  72.5 -99.9 1018.0 -9.9 -9.999 -99.9 -99.99 -9.99
2019/09/17 20:24 EDT  -99.99 -99.99   18   44   21  72.5 -99.9 1018.0 -9.9 -9.999 -99.9 -99.99 -9.99
2019/09/17 20:30 EDT  -99.99 -99.99   16   53   20  72.5 -99.9 1018.0 -9.9 -9.999 -99.9 -99.99 -9.99
2019/09/17 20:36 EDT  -99.99 -99.99   18   51   21  72.5 -99.9 1017.9 -9.9 -9.999 -99.9 -99.99 -9.99
2019/09/17 20:42 EDT  -99.99 -99.99   18   47   21  72.3 -99.9 1018.0 -9.9 -9.999 -99.9 -99.99 -9.99
2019/09/17 20:48 EDT  -99.99 -99.99   19   49   22  72.3 -99.9 1018.0 -9.9 -9.999 -99.9 -99.99 -9.99
2019/09/17 20:54 EDT  -99.99 -99.99   18   46   21  72.1 -99.9 1018.1 -9.9 -9.999 -99.9 -99.99 -9.99
2019/09/17 21:00 EDT  -99.99 -99.99   17   52   22  72.1 -99.9 1018.1 -9.9 -9.999 -99.9 -99.99 -9.99
2019/09/17 21:06 EDT  -99.99 -99.99   19   48   23  72.0 -99.9 1018.1 -9.9 -9.999 -99.9 -99.99 -9.99
2019/09/17 21:12 EDT  -99.99 -99.99   17   56   20  72.0 -99.9 1018.0 -9.9 -9.999 -99.9 -99.99 -9.99
2019/09/17 21:18 EDT  -99.99 -99.99   18   55   22  71.8 -99.9 1018.0 -9.9 -9.999 -99.9 -99.99 -9.99
2019/09/17 21:24 EDT  -99.99 -99.99   19   54   22  71.6 -99.9 1017.9 -9.9 -9.999 -99.9 -99.99 -9.99
2019/09/17 21:30 EDT  -99.99 -99.99   20   53   23  71.4 -99.9 1018.0 -9.9 -9.999 -99.9 -99.99 -9.99
2019/09/17 21:36 EDT  -99.99 -99.99   18   51   21  71.6 -99.9 1018.0 -9.9 -9.999 -99.9 -99.99 -9.99
2019/09/17 21:42 EDT  -99.99 -99.99   16   59   22  71.2 -99.9 1017.9 -9.9 -9.999 -99.9 -99.99 -9.99
2019/09/17 21:48 EDT  -99.99 -99.99   16   59   19  71.2 -99.9 1017.9 -9.9 -9.999 -99.9 -99.99 -9.99
2019/09/17 21:54 EDT  -99.99 -99.99   19   51   22  71.2 -99.9 1017.9 -9.9 -9.999 -99.9 -99.99 -9.99
2019/09/17 22:00 EDT  -99.99 -99.99   16   52   21  71.2 -99.9 1017.9 -9.9 -9.999 -99.9 -99.99 -9.99
2019/09/17 22:06 EDT  -99.99 -99.99   17   49   22  71.4 -99.9 1017.9 -9.9 -9.999 -99.9 -99.99 -9.99
2019/09/17 22:12 EDT  -99.99 -99.99   18   54   22  71.4 -99.9 1017.9 -9.9 -9.999 -99.9 -99.99 -9.99
2019/09/17 22:18 EDT  -99.99 -99.99   14   57   20  71.2 -99.9 1018.0 -9.9 -9.999 -99.9 -99.99 -9.99
2019/09/17 22:24 EDT  -99.99 -99.99   14   63   19  71.2 -99.9 1017.9 -9.9 -9.999 -99.9 -99.99 -9.99
2019/09/17 22:30 EDT  -99.99 -99.99   14   60   18  71.2 -99.9 1017.9 -9.9 -9.999 -99.9 -99.99 -9.99
2019/09/17 22:36 EDT  -99.99 -99.99   14   62   17  71.4 -99.9 1017.9 -9.9 -9.999 -99.9 -99.99 -9.99
2019/09/17 22:42 EDT  -99.99 -99.99   16   53   19  71.8 -99.9 1017.9 -9.9 -9.999 -99.9 -99.99 -9.99
2019/09/17 22:48 EDT  -99.99 -99.99   16   66   19  72.0 -99.9 1017.9 -9.9 -9.999 -99.9 -99.99 -9.99
2019/09/17 22:54 EDT  -99.99 -99.99   17   54   19  72.1 -99.9 1018.0 -9.9 -9.999 -99.9 -99.99 -9.99
2019/09/17 23:00 EDT  -99.99 -99.99   15   60   21  71.6 -99.9 1018.0 -9.9 -9.999 -99.9 -99.99 -9.99
2019/09/17 23:06 EDT  -99.99 -99.99   15   56   19  71.6 -99.9 1018.1 -9.9 -9.999 -99.9 -99.99 -9.99
2019/09/17 23:12 EDT  -99.99 -99.99   16   53   20  71.8 -99.9 1018.1 -9.9 -9.999 -99.9 -99.99 -9.99
2019/09/17 23:18 EDT  -99.99 -99.99   15   57   19  71.8 -99.9 1018.2 -9.9 -9.999 -99.9 -99.99 -9.99
2019/09/17 23:24 EDT  -99.99 -99.99   17   67   21  71.6 -99.9 1018.1 -9.9 -9.999 -99.9 -99.99 -9.99
2019/09/17 23:30 EDT  -99.99 -99.99   15   67   19  71.8 -99.9 1018.1 -9.9 -9.999 -99.9 -99.99 -9.99
2019/09/17 23:36 EDT  -99.99 -99.99   17   69   21  71.8 -99.9 1018.1 -9.9 -9.999 -99.9 -99.99 -9.99
2019/09/17 23:42 EDT  -99.99 -99.99   16   65   21  71.8 -99.9 1018.0 -9.9 -9.999 -99.9 -99.99 -9.99
2019/09/17 23:48 EDT  -99.99 -99.99   16   67   20  71.8 -99.9 1018.0 -9.9 -9.999 -99.9 -99.99 -9.99
2019/09/17 23:54 EDT  -99.99 -99.99   15   68   22  71.8 -99.9 1018.0 -9.9 -9.999 -99.9 -99.99 -9.99
2019/09/18 00:00 EDT  -99.99 -99.99   15   67   20  71.8 -99.9 1017.9 -9.9 -9.999 -99.9 -99.99 -9.99
2019/09/18 00:06 EDT  -99.99 -99.99   14   61   20  71.4 -99.9 1017.9 -9.9 -9.999 -99.9 -99.99 -9.99
2019/09/18 00:12 EDT  -99.99 -99.99   16   69   22  71.8 -99.9 1017.8 -9.9 -9.999 -99.9 -99.99 -9.99
2019/09/18 00:18 EDT  -99.99 -99.99   16   71   19  71.8 -99.9 1017.7 -9.9 -9.999 -99.9 -99.99 -9.99
2019/09/18 00:24 EDT  -99.99 -99.99   15   62   19  71.6 -99.9 1017.7 -9.9 -9.999 -99.9 -99.99 -9.99
2019/09/18 00:30 EDT  -99.99 -99.99   14   67   17  71.8 -99.9 1017.7 -9.9 -9.999 -99.9 -99.99 -9.99
2019/09/18 00:36 EDT  -99.99 -99.99   17   75   20  71.6 -99.9 1017.6 -9.9 -9.999 -99.9 -99.99 -9.99
2019/09/18 00:42 EDT  -99.99 -99.99   16   66   21  71.8 -99.9 1017.7 -9.9 -9.999 -99.9 -99.99 -9.99
2019/09/18 00:48 EDT  -99.99 -99.99   14   63   18  71.6 -99.9 1017.8 -9.9 -9.999 -99.9 -99.99 -9.99
2019/09/18 00:54 EDT  -99.99 -99.99   15   75   19  71.6 -99.9 1017.8 -9.9 -9.999 -99.9 -99.99 -9.99
2019/09/18 01:00 EDT  -99.99 -99.99   16   70   18  71.4 -99.9 1017.7 -9.9 -9.999 -99.9 -99.99 -9.99
2019/09/18 01:06 EDT  -99.99 -99.99   12   60   18  71.4 -99.9 1017.7 -9.9 -9.999 -99.9 -99.99 -9.99
2019/09/18 01:12 EDT  -99.99 -99.99   16   54   18  71.6 -99.9 1017.8 -9.9 -9.999 -99.9 -99.99 -9.99
2019/09/18 01:18 EDT  -99.99 -99.99   14   58   18  71.2 -99.9 1017.9 -9.9 -9.999 -99.9 -99.99 -9.99
2019/09/18 01:24 EDT  -99.99 -99.99   14   58   17  71.6 -99.9 1017.9 -9.9 -9.999 -99.9 -99.99 -9.99
2019/09/18 01:30 EDT  -99.99 -99.99   15   68   20  71.6 -99.9 1017.8 -9.9 -9.999 -99.9 -99.99 -9.99
2019/09/18 01:36 EDT  -99.99 -99.99   13   62   17  71.6 -99.9 1017.8 -9.9 -9.999 -99.9 -99.99 -9.99
2019/09/18 01:42 EDT  -99.99 -99.99   15   64   19  71.6 -99.9 1017.8 -9.9 -9.999 -99.9 -99.99 -9.99
2019/09/18 01:48 EDT  -99.99 -99.99   15   69   19  71.6 -99.9 1017.8 -9.9 -9.999 -99.9 -99.99 -9.99
2019/09/18 01:54 EDT  -99.99 -99.99   13   58   19  71.4 -99.9 1017.9 -9.9 -9.999 -99.9 -99.99 -9.99
2019/09/18 02:00 EDT  -99.99 -99.99   16   64   20  71.4 -99.9 1017.9 -9.9 -9.999 -99.9 -99.99 -9.99
2019/09/18 02:06 EDT  -99.99 -99.99   15   61   19  71.4 -99.9 1018.0 -9.9 -9.999 -99.9 -99.99 -9.99
2019/09/18 02:12 EDT  -99.99 -99.99   15   66   20  71.2 -99.9 1018.0 -9.9 -9.999 -99.9 -99.99 -9.99
2019/09/18 02:18 EDT  -99.99 -99.99   16   66   20  71.4 -99.9 1018.0 -9.9 -9.999 -99.9 -99.99 -9.99
2019/09/18 02:24 EDT  -99.99 -99.99   15   62   18  71.4 -99.9 1018.0 -9.9 -9.999 -99.9 -99.99 -9.99
2019/09/18 02:30 EDT  -99.99 -99.99   15   57   20  71.4 -99.9 1018.0 -9.9 -9.999 -99.9 -99.99 -9.99
2019/09/18 02:36 EDT  -99.99 -99.99   15   62   23  71.4 -99.9 1018.0 -9.9 -9.999 -99.9 -99.99 -9.99
2019/09/18 02:42 EDT  -99.99 -99.99   15   58   19  71.4 -99.9 1018.1 -9.9 -9.999 -99.9 -99.99 -9.99
2019/09/18 02:48 EDT  -99.99 -99.99   16   65   20  71.4 -99.9 1017.9 -9.9 -9.999 -99.9 -99.99 -9.99
2019/09/18 02:54 EDT  -99.99 -99.99   15   62   20  71.2 -99.9 1018.0 -9.9 -9.999 -99.9 -99.99 -9.99
2019/09/18 03:00 EDT  -99.99 -99.99   17   71   21  71.2 -99.9 1018.0 -9.9 -9.999 -99.9 -99.99 -9.99
2019/09/18 03:06 EDT  -99.99 -99.99   17   71   21  71.4 -99.9 1018.0 -9.9 -9.999 -99.9 -99.99 -9.99
2019/09/18 03:12 EDT  -99.99 -99.99   17   71   20  71.2 -99.9 1018.0 -9.9 -9.999 -99.9 -99.99 -9.99
2019/09/18 03:18 EDT  -99.99 -99.99   16   62   19  71.2 -99.9 1018.0 -9.9 -9.999 -99.9 -99.99 -9.99
2019/09/18 03:24 EDT  -99.99 -99.99   18   70   21  71.1 -99.9 1017.9 -9.9 -9.999 -99.9 -99.99 -9.99
2019/09/18 03:30 EDT  -99.99 -99.99   16   64   22  71.1 -99.9 1018.0 -9.9 -9.999 -99.9 -99.99 -9.99
2019/09/18 03:36 EDT  -99.99 -99.99   15   57   19  71.2 -99.9 1018.1 -9.9 -9.999 -99.9 -99.99 -9.99
2019/09/18 03:42 EDT  -99.99 -99.99   13   62   20  71.4 -99.9 1018.1 -9.9 -9.999 -99.9 -99.99 -9.99
2019/09/18 03:48 EDT  -99.99 -99.99   14   58   20  71.1 -99.9 1018.1 -9.9 -9.999 -99.9 -99.99 -9.99
2019/09/18 03:54 EDT  -99.99 -99.99   17   48   20  71.2 -99.9 1018.2 -9.9 -9.999 -99.9 -99.99 -9.99
2019/09/18 04:00 EDT  -99.99 -99.99   18   49   22  71.1 -99.9 1018.2 -9.9 -9.999 -99.9 -99.99 -9.99
2019/09/18 04:06 EDT  -99.99 -99.99   15   61   21  71.1 -99.9 1018.1 -9.9 -9.999 -99.9 -99.99 -9.99
2019/09/18 04:12 EDT  -99.99 -99.99   16   59   21  70.7 -99.9 1018.1 -9.9 -9.999 -99.9 -99.99 -9.99
2019/09/18 04:18 EDT  -99.99 -99.99   16   53   19  70.9 -99.9 1018.3 -9.9 -9.999 -99.9 -99.99 -9.99
2019/09/18 04:24 EDT  -99.99 -99.99   15   57   20  71.1 -99.9 1018.3 -9.9 -9.999 -99.9 -99.99 -9.99
2019/09/18 04:30 EDT  -99.99 -99.99   13   58   21  70.9 -99.9 1018.2 -9.9 -9.999 -99.9 -99.99 -9.99
2019/09/18 04:36 EDT  -99.99 -99.99   17   55   23  70.7 -99.9 1018.2 -9.9 -9.999 -99.9 -99.99 -9.99
2019/09/18 04:42 EDT  -99.99 -99.99   16   66   21  70.7 -99.9 1018.2 -9.9 -9.999 -99.9 -99.99 -9.99
2019/09/18 04:48 EDT  -99.99 -99.99   16   60   22  70.5 -99.9 1018.2 -9.9 -9.999 -99.9 -99.99 -9.99
2019/09/18 04:54 EDT  -99.99 -99.99   18   47   20  70.5 -99.9 1018.3 -9.9 -9.999 -99.9 -99.99 -9.99
2019/09/18 05:00 EDT  -99.99 -99.99   18   48   23  70.5 -99.9 1018.4 -9.9 -9.999 -99.9 -99.99 -9.99
2019/09/18 05:06 EDT  -99.99 -99.99   17   53   23  70.3 -99.9 1018.4 -9.9 -9.999 -99.9 -99.99 -9.99
2019/09/18 05:12 EDT  -99.99 -99.99   17   54   21  70.3 -99.9 1018.4 -9.9 -9.999 -99.9 -99.99 -9.99
2019/09/18 05:18 EDT  -99.99 -99.99   17   54   21  70.3 -99.9 1018.6 -9.9 -9.999 -99.9 -99.99 -9.99
2019/09/18 05:24 EDT  -99.99 -99.99   18   54   22  70.3 -99.9 1018.6 -9.9 -9.999 -99.9 -99.99 -9.99
2019/09/18 05:30 EDT  -99.99 -99.99   22   43   25  70.3 -99.9 1018.7 -9.9 -9.999 -99.9 -99.99 -9.99
2019/09/18 05:36 EDT  -99.99 -99.99   16   52   22  70.3 -99.9 1018.6 -9.9 -9.999 -99.9 -99.99 -9.99
2019/09/18 05:42 EDT  -99.99 -99.99   18   50   21  70.5 -99.9 1018.7 -9.9 -9.999 -99.9 -99.99 -9.99
2019/09/18 05:48 EDT  -99.99 -99.99   20   45   24  70.2 -99.9 1018.8 -9.9 -9.999 -99.9 -99.99 -9.99
2019/09/18 05:54 EDT  -99.99 -99.99   16   54   24  70.3 -99.9 1018.7 -9.9 -9.999 -99.9 -99.99 -9.99
2019/09/18 06:00 EDT  -99.99 -99.99   20   42   24  70.3 -99.9 1018.8 -9.9 -9.999 -99.9 -99.99 -9.99
2019/09/18 06:06 EDT  -99.99 -99.99   17   48   23  70.3 -99.9 1018.7 -9.9 -9.999 -99.9 -99.99 -9.99
2019/09/18 06:12 EDT  -99.99 -99.99   21   48   24  70.0 -99.9 1018.8 -9.9 -9.999 -99.9 -99.99 -9.99
2019/09/18 06:18 EDT  -99.99 -99.99   18   47   23  70.2 -99.9 1018.9 -9.9 -9.999 -99.9 -99.99 -9.99
2019/09/18 06:24 EDT  -99.99 -99.99   21   45   24  70.0 -99.9 1018.9 -9.9 -9.999 -99.9 -99.99 -9.99
2019/09/18 06:30 EDT  -99.99 -99.99   17   50   21  70.0 -99.9 1018.8 -9.9 -9.999 -99.9 -99.99 -9.99
2019/09/18 06:36 EDT  -99.99 -99.99   18   47   23  70.0 -99.9 1018.9 -9.9 -9.999 -99.9 -99.99 -9.99
2019/09/18 06:42 EDT  -99.99 -99.99   18   43   25  70.0 -99.9 1018.9 -9.9 -9.999 -99.9 -99.99 -9.99
2019/09/18 06:48 EDT  -99.99 -99.99   19   46   22  70.0 -99.9 1019.0 -9.9 -9.999 -99.9 -99.99 -9.99
2019/09/18 06:54 EDT  -99.99 -99.99   18   45   22  70.0 -99.9 1019.1 -9.9 -9.999 -99.9 -99.99 -9.99
2019/09/18 07:00 EDT  -99.99 -99.99   18   47   23  69.8 -99.9 1019.2 -9.9 -9.999 -99.9 -99.99 -9.99
2019/09/18 07:06 EDT  -99.99 -99.99   16   50   22  70.0 -99.9 1019.1 -9.9 -9.999 -99.9 -99.99 -9.99
2019/09/18 07:12 EDT  -99.99 -99.99   20   56   25  69.8 -99.9 1019.1 -9.9 -9.999 -99.9 -99.99 -9.99
2019/09/18 07:18 EDT  -99.99 -99.99   19   49   23  70.3 -99.9 1019.3 -9.9 -9.999 -99.9 -99.99 -9.99
2019/09/18 07:24 EDT  -99.99 -99.99   19   48   24  70.0 -99.9 1019.3 -9.9 -9.999 -99.9 -99.99 -9.99
2019/09/18 07:30 EDT  -99.99 -99.99   20   47   23  70.2 -99.9 1019.5 -9.9 -9.999 -99.9 -99.99 -9.99
2019/09/18 07:36 EDT  -99.99 -99.99   21   53   24  69.8 -99.9 1019.5 -9.9 -9.999 -99.9 -99.99 -9.99
2019/09/18 07:42 EDT  -99.99 -99.99   19   45   23  69.8 -99.9 1019.7 -9.9 -9.999 -99.9 -99.99 -9.99
2019/09/18 07:48 EDT  -99.99 -99.99   18   41   23  70.2 -99.9 1019.8 -9.9 -9.999 -99.9 -99.99 -9.99
2019/09/18 07:54 EDT  -99.99 -99.99   17   51   21  69.8 -99.9 1019.7 -9.9 -9.999 -99.9 -99.99 -9.99
2019/09/18 08:00 EDT  -99.99 -99.99   19   50   22  69.8 -99.9 1019.7 -9.9 -9.999 -99.9 -99.99 -9.99
2019/09/18 08:06 EDT  -99.99 -99.99   18   48   22  69.8 -99.9 1019.6 -9.9 -9.999 -99.9 -99.99 -9.99
2019/09/18 08:12 EDT  -99.99 -99.99   15   58   22  70.0 -99.9 1019.7 -9.9 -9.999 -99.9 -99.99 -9.99
2019/09/18 08:18 EDT  -99.99 -99.99   18   38   23  70.0 -99.9 1019.8 -9.9 -9.999 -99.9 -99.99 -9.99
2019/09/18 08:24 EDT  -99.99 -99.99   19   45   23  70.0 -99.9 1019.8 -9.9 -9.999 -99.9 -99.99 -9.99
2019/09/18 08:30 EDT  -99.99 -99.99   20   47   24  70.2 -99.9 1020.0 -9.9 -9.999 -99.9 -99.99 -9.99
2019/09/18 08:36 EDT  -99.99 -99.99   17   55   26  70.0 -99.9 1019.9 -9.9 -9.999 -99.9 -99.99 -9.99
2019/09/18 08:42 EDT  -99.99 -99.99   20   47   25  69.8 -99.9 1020.0 -9.9 -9.999 -99.9 -99.99 -9.99
2019/09/18 08:48 EDT  -99.99 -99.99   18   42   22  70.2 -99.9 1020.1 -9.9 -9.999 -99.9 -99.99 -9.99
2019/09/18 08:54 EDT  -99.99 -99.99   19   44   23  70.2 -99.9 1020.1 -9.9 -9.999 -99.9 -99.99 -9.99
2019/09/18 09:00 EDT  -99.99 -99.99   18   44   22  70.5 -99.9 1020.2 -9.9 -9.999 -99.9 -99.99 -9.99
2019/09/18 09:06 EDT  -99.99 -99.99   22   36   26  70.2 -99.9 1020.3 -9.9 -9.999 -99.9 -99.99 -9.99
2019/09/18 09:12 EDT  -99.99 -99.99   19   36   22  70.2 -99.9 1020.4 -9.9 -9.999 -99.9 -99.99 -9.99
2019/09/18 09:18 EDT  -99.99 -99.99   20   40   23  70.2 -99.9 1020.4 -9.9 -9.999 -99.9 -99.99 -9.99
2019/09/18 09:24 EDT  -99.99 -99.99   20   37   23  70.2 -99.9 1020.3 -9.9 -9.999 -99.9 -99.99 -9.99
2019/09/18 09:30 EDT  -99.99 -99.99   21   41   23  70.2 -99.9 1020.4 -9.9 -9.999 -99.9 -99.99 -9.99
2019/09/18 09:36 EDT  -99.99 -99.99   21   40   25  69.8 -99.9 1020.4 -9.9 -9.999 -99.9 -99.99 -9.99
2019/09/18 09:42 EDT  -99.99 -99.99   18   45   21  70.2 -99.9 1020.5 -9.9 -9.999 -99.9 -99.99 -9.99
2019/09/18 09:48 EDT  -99.99 -99.99   17   39   24  70.0 -99.9 1020.5 -9.9 -9.999 -99.9 -99.99 -9.99
2019/09/18 09:54 EDT  -99.99 -99.99   18   39   24  70.2 -99.9 1020.5 -9.9 -9.999 -99.9 -99.99 -9.99
2019/09/18 10:00 EDT  -99.99 -99.99   18   50   23  70.0 -99.9 1020.5 -9.9 -9.999 -99.9 -99.99 -9.99
2019/09/18 10:06 EDT  -99.99 -99.99   17   54   20  70.0 -99.9 1020.5 -9.9 -9.999 -99.9 -99.99 -9.99
2019/09/18 10:12 EDT  -99.99 -99.99   19   37   23  70.0 -99.9 1020.7 -9.9 -9.999 -99.9 -99.99 -9.99
2019/09/18 10:18 EDT  -99.99 -99.99   17   50   23  70.0 -99.9 1020.6 -9.9 -9.999 -99.9 -99.99 -9.99
2019/09/18 10:24 EDT  -99.99 -99.99   17   48   23  69.8 -99.9 1020.7 -9.9 -9.999 -99.9 -99.99 -9.99
2019/09/18 10:30 EDT  -99.99 -99.99   18   41   20  70.0 -99.9 1020.7 -9.9 -9.999 -99.9 -99.99 -9.99
2019/09/18 10:36 EDT  -99.99 -99.99   19   39   21  70.0 -99.9 1020.8 -9.9 -9.999 -99.9 -99.99 -9.99
2019/09/18 10:42 EDT  -99.99 -99.99   17   45   21  70.3 -99.9 1020.8 -9.9 -9.999 -99.9 -99.99 -9.99
2019/09/18 10:48 EDT  -99.99 -99.99   18   37   22  70.0 -99.9 1020.9 -9.9 -9.999 -99.9 -99.99 -9.99
2019/09/18 10:54 EDT  -99.99 -99.99   19   36   21  70.0 -99.9 1020.9 -9.9 -9.999 -99.9 -99.99 -9.99
2019/09/18 11:00 EDT  -99.99 -99.99   17   33   19  70.0 -99.9 1020.9 -9.9 -9.999 -99.9 -99.99 -9.99
2019/09/18 11:06 EDT  -99.99 -99.99 -999 -999 -999 -99.9 -99.9 -999.9 -9.9 -9.999 -99.9 -99.99 -9.99
2019/09/18 11:12 EDT  -99.99 -99.99   17   39   20  70.3 -99.9 1020.8 -9.9 -9.999 -99.9 -99.99 -9.99
2019/09/18 11:18 EDT  -99.99 -99.99   15   31   21  70.0 -99.9 1020.8 -9.9 -9.999 -99.9 -99.99 -9.99
2019/09/18 11:24 EDT  -99.99 -99.99   16   36   20  70.2 -99.9 1020.9 -9.9 -9.999 -99.9 -99.99 -9.99
2019/09/18 11:30 EDT  -99.99 -99.99   15   34   18  70.5 -99.9 1020.8 -9.9 -9.999 -99.9 -99.99 -9.99
2019/09/18 11:36 EDT  -99.99 -99.99   16   44   19  70.7 -99.9 1020.7 -9.9 -9.999 -99.9 -99.99 -9.99
2019/09/18 11:42 EDT  -99.99 -99.99   17   36   20  70.5 -99.9 1020.8 -9.9 -9.999 -99.9 -99.99 -9.99
2019/09/18 11:48 EDT  -99.99 -99.99   15   32   19  70.3 -99.9 1020.8 -9.9 -9.999 -99.9 -99.99 -9.99
2019/09/18 11:54 EDT  -99.99 -99.99   17   39   19  70.3 -99.9 1020.8 -9.9 -9.999 -99.9 -99.99 -9.99
2019/09/18 12:00 EDT  -99.99 -99.99   14   54   20  70.5 -99.9 1020.7 -9.9 -9.999 -99.9 -99.99 -9.99
2019/09/18 12:06 EDT  -99.99 -99.99   17   41   21  70.9 -99.9 1020.8 -9.9 -9.999 -99.9 -99.99 -9.99
2019/09/18 12:12 EDT  -99.99 -99.99   16   42   19  70.3 -99.9 1020.7 -9.9 -9.999 -99.9 -99.99 -9.99
2019/09/18 12:18 EDT  -99.99 -99.99   15   48   19  70.5 -99.9 1020.7 -9.9 -9.999 -99.9 -99.99 -9.99
2019/09/18 12:24 EDT  -99.99 -99.99   15   52   20  70.7 -99.9 1020.7 -9.9 -9.999 -99.9 -99.99 -9.99
2019/09/18 12:30 EDT  -99.99 -99.99   16   41   19  70.7 -99.9 1020.8 -9.9 -9.999 -99.9 -99.99 -9.99
2019/09/18 12:36 EDT  -99.99 -99.99   15   55   21  70.9 -99.9 1020.8 -9.9 -9.999 -99.9 -99.99 -9.99
2019/09/18 12:42 EDT  -99.99 -99.99   19   38   22  70.7 -99.9 1020.8 -9.9 -9.999 -99.9 -99.99 -9.99
2019/09/18 12:48 EDT  -99.99 -99.99   18   47   20  70.7 -99.9 1020.7 -9.9 -9.999 -99.9 -99.99 -9.99
2019/09/18 12:54 EDT  -99.99 -99.99   18   50   22  70.7 -99.9 1020.7 -9.9 -9.999 -99.9 -99.99 -9.99
2019/09/18 13:00 EDT  -99.99 -99.99   17   43   20  70.5 -99.9 1020.7 -9.9 -9.999 -99.9 -99.99 -9.99
2019/09/18 13:06 EDT  -99.99 -99.99   16   45   19  70.7 -99.9 1020.8 -9.9 -9.999 -99.9 -99.99 -9.99
2019/09/18 13:12 EDT  -99.99 -99.99   16   38   20  70.9 -99.9 1020.8 -9.9 -9.999 -99.9 -99.99 -9.99
2019/09/18 13:18 EDT  -99.99 -99.99   16   43   20  70.9 -99.9 1020.7 -9.9 -9.999 -99.9 -99.99 -9.99
2019/09/18 13:24 EDT  -99.99 -99.99   15   56   17  70.9 -99.9 1020.8 -9.9 -9.999 -99.9 -99.99 -9.99
2019/09/18 13:30 EDT  -99.99 -99.99   15   33   20  70.9 -99.9 1020.8 -9.9 -9.999 -99.9 -99.99 -9.99
2019/09/18 13:36 EDT  -99.99 -99.99   16   49   18  70.9 -99.9 1020.8 -9.9 -9.999 -99.9 -99.99 -9.99
2019/09/18 13:42 EDT  -99.99 -99.99   17   44   21  70.9 -99.9 1020.8 -9.9 -9.999 -99.9 -99.99 -9.99
2019/09/18 13:48 EDT  -99.99 -99.99   21   41   23  70.7 -99.9 1020.8 -9.9 -9.999 -99.9 -99.99 -9.99
2019/09/18 13:54 EDT  -99.99 -99.99   19   42   23  70.3 -99.9 1020.8 -9.9 -9.999 -99.9 -99.99 -9.99
2019/09/18 14:00 EDT  -99.99 -99.99   17   54   21  70.3 -99.9 1020.8 -9.9 -9.999 -99.9 -99.99 -9.99
2019/09/18 14:06 EDT  -99.99 -99.99   17   46   20  70.5 -99.9 1020.8 -9.9 -9.999 -99.9 -99.99 -9.99
2019/09/18 14:12 EDT  -99.99 -99.99   16   56   19  70.5 -99.9 1020.7 -9.9 -9.999 -99.9 -99.99 -9.99
2019/09/18 14:18 EDT  -99.99 -99.99   16   48   19  70.5 -99.9 1020.7 -9.9 -9.999 -99.9 -99.99 -9.99
2019/09/18 14:24 EDT  -99.99 -99.99   17   49   20  70.3 -99.9 1020.7 -9.9 -9.999 -99.9 -99.99 -9.99
2019/09/18 14:30 EDT  -99.99 -99.99   13   54   21  70.7 -99.9 1020.6 -9.9 -9.999 -99.9 -99.99 -9.99
2019/09/18 14:36 EDT  -99.99 -99.99   16   51   20  70.3 -99.9 1020.5 -9.9 -9.999 -99.9 -99.99 -9.99
2019/09/18 14:42 EDT  -99.99 -99.99   15   59   20  70.5 -99.9 1020.6 -9.9 -9.999 -99.9 -99.99 -9.99
2019/09/18 14:48 EDT  -99.99 -99.99   14   60   19  70.5 -99.9 1020.5 -9.9 -9.999 -99.9 -99.99 -9.99
2019/09/18 14:54 EDT  -99.99 -99.99   17   41   21  70.3 -99.9 1020.6 -9.9 -9.999 -99.9 -99.99 -9.99
2019/09/18 15:00 EDT  -99.99 -99.99   18   49   21  70.2 -99.9 1020.6 -9.9 -9.999 -99.9 -99.99 -9.99
2019/09/18 15:06 EDT  -99.99 -99.99   18   50   22  70.2 -99.9 1020.7 -9.9 -9.999 -99.9 -99.99 -9.99
2019/09/18 15:12 EDT  -99.99 -99.99   17   49   21  70.0 -99.9 1020.7 -9.9 -9.999 -99.9 -99.99 -9.99
2019/09/18 15:18 EDT  -99.99 -99.99   14   60   21  70.2 -99.9 1020.6 -9.9 -9.999 -99.9 -99.99 -9.99
2019/09/18 15:24 EDT  -99.99 -99.99   15   58   20  70.3 -99.9 1020.5 -9.9 -9.999 -99.9 -99.99 -9.99
2019/09/18 15:30 EDT  -99.99 -99.99   20   43   22  70.2 -99.9 1020.6 -9.9 -9.999 -99.9 -99.99 -9.99
2019/09/18 15:36 EDT  -99.99 -99.99   16   50   21  70.3 -99.9 1020.6 -9.9 -9.999 -99.9 -99.99 -9.99
2019/09/18 15:42 EDT  -99.99 -99.99   18   50   22  70.0 -99.9 1020.6 -9.9 -9.999 -99.9 -99.99 -9.99
2019/09/18 15:48 EDT  -99.99 -99.99   16   53   21  70.3 -99.9 1020.6 -9.9 -9.999 -99.9 -99.99 -9.99
2019/09/18 15:54 EDT  -99.99 -99.99   17   57   21  70.3 -99.9 1020.6 -9.9 -9.999 -99.9 -99.99 -9.99
2019/09/18 16:00 EDT  -99.99 -99.99   18   48   23  70.2 -99.9 1020.6 -9.9 -9.999 -99.9 -99.99 -9.99
2019/09/18 16:06 EDT  -99.99 -99.99   18   57   22  70.3 -99.9 1020.6 -9.9 -9.999 -99.9 -99.99 -9.99
2019/09/18 16:12 EDT  -99.99 -99.99   18   54   22  70.0 -99.9 1020.5 -9.9 -9.999 -99.9 -99.99 -9.99
2019/09/18 16:18 EDT  -99.99 -99.99   17   57   23  70.3 -99.9 1020.6 -9.9 -9.999 -99.9 -99.99 -9.99
2019/09/18 16:24 EDT  -99.99 -99.99   15   55   20  70.2 -99.9 1020.7 -9.9 -9.999 -99.9 -99.99 -9.99
2019/09/18 16:30 EDT  -99.99 -99.99   19   48   23  70.3 -99.9 1020.7 -9.9 -9.999 -99.9 -99.99 -9.99
2019/09/18 16:36 EDT  -99.99 -99.99   19   53   23  70.0 -99.9 1020.7 -9.9 -9.999 -99.9 -99.99 -9.99
2019/09/18 16:42 EDT  -99.99 -99.99   18   58   22  70.2 -99.9 1020.6 -9.9 -9.999 -99.9 -99.99 -9.99
2019/09/18 16:48 EDT  -99.99 -99.99   17   58   24  70.2 -99.9 1020.6 -9.9 -9.999 -99.9 -99.99 -9.99
2019/09/18 16:54 EDT  -99.99 -99.99   18   47   21  70.0 -99.9 1020.8 -9.9 -9.999 -99.9 -99.99 -9.99
2019/09/18 17:00 EDT  -99.99 -99.99   16   60   22  70.0 -99.9 1020.7 -9.9 -9.999 -99.9 -99.99 -9.99
2019/09/18 17:06 EDT  -99.99 -99.99   17   58   20  70.0 -99.9 1020.7 -9.9 -9.999 -99.9 -99.99 -9.99
2019/09/18 17:12 EDT  -99.99 -99.99   20   51   22  69.8 -99.9 1020.7 -9.9 -9.999 -99.9 -99.99 -9.99
2019/09/18 17:18 EDT  -99.99 -99.99   16   50   21  70.0 -99.9 1020.7 -9.9 -9.999 -99.9 -99.99 -9.99
2019/09/18 17:24 EDT  -99.99 -99.99   15   49   22  70.3 -99.9 1020.9 -9.9 -9.999 -99.9 -99.99 -9.99
2019/09/18 17:30 EDT  -99.99 -99.99   17   53   23  70.0 -99.9 1020.8 -9.9 -9.999 -99.9 -99.99 -9.99
2019/09/18 17:36 EDT  -99.99 -99.99   18   45   22  70.2 -99.9 1020.9 -9.9 -9.999 -99.9 -99.99 -9.99
2019/09/18 17:42 EDT  -99.99 -99.99   18   53   21  70.0 -99.9 1020.9 -9.9 -9.999 -99.9 -99.99 -9.99
2019/09/18 17:48 EDT  -99.99 -99.99   18   58   23  70.0 -99.9 1020.8 -9.9 -9.999 -99.9 -99.99 -9.99
2019/09/18 17:54 EDT  -99.99 -99.99   18   51   24  70.0 -99.9 1020.9 -9.9 -9.999 -99.9 -99.99 -9.99
2019/09/18 18:00 EDT  -99.99 -99.99   17   48   24  70.2 -99.9 1020.9 -9.9 -9.999 -99.9 -99.99 -9.99
2019/09/18 18:06 EDT  -99.99 -99.99   17   46   22  69.8 -99.9 1020.9 -9.9 -9.999 -99.9 -99.99 -9.99
2019/09/18 18:12 EDT  -99.99 -99.99   12   51   20  70.3 -99.9 1021.0 -9.9 -9.999 -99.9 -99.99 -9.99
2019/09/18 18:18 EDT  -99.99 -99.99   15   50   20  69.8 -99.9 1021.0 -9.9 -9.999 -99.9 -99.99 -9.99
2019/09/18 18:24 EDT  -99.99 -99.99   16   47   20  69.6 -99.9 1021.0 -9.9 -9.999 -99.9 -99.99 -9.99
2019/09/18 18:30 EDT  -99.99 -99.99   14   55   18  69.8 -99.9 1021.0 -9.9 -9.999 -99.9 -99.99 -9.99
2019/09/18 18:36 EDT  -99.99 -99.99   16   50   20  69.8 -99.9 1021.1 -9.9 -9.999 -99.9 -99.99 -9.99
2019/09/18 18:42 EDT  -99.99 -99.99   16   53   21  69.6 -99.9 1021.2 -9.9 -9.999 -99.9 -99.99 -9.99
2019/09/18 18:48 EDT  -99.99 -99.99   19   42   22  69.6 -99.9 1021.2 -9.9 -9.999 -99.9 -99.99 -9.99
2019/09/18 18:54 EDT  -99.99 -99.99   17   44   21  69.6 -99.9 1021.4 -9.9 -9.999 -99.9 -99.99 -9.99
2019/09/18 19:00 EDT  -99.99 -99.99   17   49   21  69.3 -99.9 1021.5 -9.9 -9.999 -99.9 -99.99 -9.99
2019/09/18 19:06 EDT  -99.99 -99.99   17   48   21  69.4 -99.9 1021.4 -9.9 -9.999 -99.9 -99.99 -9.99
2019/09/18 19:12 EDT  -99.99 -99.99   16   50   22  69.4 -99.9 1021.5 -9.9 -9.999 -99.9 -99.99 -9.99
2019/09/18 19:18 EDT  -99.99 -99.99   16   49   19  69.6 -99.9 1021.6 -9.9 -9.999 -99.9 -99.99 -9.99
2019/09/18 19:24 EDT  -99.99 -99.99   17   51   21  69.3 -99.9 1021.5 -9.9 -9.999 -99.9 -99.99 -9.99
2019/09/18 19:30 EDT  -99.99 -99.99   17   53   22  69.6 -99.9 1021.5 -9.9 -9.999 -99.9 -99.99 -9.99
2019/09/18 19:36 EDT  -99.99 -99.99   17   59   21  69.4 -99.9 1021.5 -9.9 -9.999 -99.9 -99.99 -9.99
2019/09/18 19:42 EDT  -99.99 -99.99   16   58   24  69.6 -99.9 1021.6 -9.9 -9.999 -99.9 -99.99 -9.99
2019/09/18 19:48 EDT  -99.99 -99.99   16   57   23  69.1 -99.9 1021.6 -9.9 -9.999 -99.9 -99.99 -9.99
2019/09/18 19:54 EDT  -99.99 -99.99   18   56   23  69.3 -99.9 1021.6 -9.9 -9.999 -99.9 -99.99 -9.99
2019/09/18 20:00 EDT  -99.99 -99.99   16   59   20  69.3 -99.9 1021.7 -9.9 -9.999 -99.9 -99.99 -9.99
2019/09/18 20:06 EDT  -99.99 -99.99   17   59   22  69.1 -99.9 1021.7 -9.9 -9.999 -99.9 -99.99 -9.99
2019/09/18 20:12 EDT  -99.99 -99.99   14   59   21  69.1 -99.9 1021.7 -9.9 -9.999 -99.9 -99.99 -9.99
2019/09/18 20:18 EDT  -99.99 -99.99   19   50   21  69.3 -99.9 1021.7 -9.9 -9.999 -99.9 -99.99 -9.99
2019/09/18 20:24 EDT  -99.99 -99.99   19   52   23  69.1 -99.9 1021.7 -9.9 -9.999 -99.9 -99.99 -9.99
2019/09/18 20:30 EDT  -99.99 -99.99   19   57   22  68.9 -99.9 1021.8 -9.9 -9.999 -99.9 -99.99 -9.99
2019/09/18 20:36 EDT  -99.99 -99.99   20   58   23  68.9 -99.9 1021.8 -9.9 -9.999 -99.9 -99.99 -9.99
2019/09/18 20:42 EDT  -99.99 -99.99   19   55   21  69.1 -99.9 1021.9 -9.9 -9.999 -99.9 -99.99 -9.99
2019/09/18 20:48 EDT  -99.99 -99.99   19   50   25  69.1 -99.9 1022.1 -9.9 -9.999 -99.9 -99.99 -9.99
2019/09/18 20:54 EDT  -99.99 -99.99   18   52   25  68.9 -99.9 1022.3 -9.9 -9.999 -99.9 -99.99 -9.99
2019/09/18 21:00 EDT  -99.99 -99.99   18   58   23  68.9 -99.9 1022.3 -9.9 -9.999 -99.9 -99.99 -9.99
2019/09/18 21:06 EDT  -99.99 -99.99   18   57   22  68.9 -99.9 1022.3 -9.9 -9.999 -99.9 -99.99 -9.99
2019/09/18 21:12 EDT  -99.99 -99.99   21   66   25  68.9 -99.9 1022.3 -9.9 -9.999 -99.9 -99.99 -9.99
2019/09/18 21:18 EDT  -99.99 -99.99   19   53   25  68.7 -99.9 1022.4 -9.9 -9.999 -99.9 -99.99 -9.99
2019/09/18 21:24 EDT  -99.99 -99.99   21   52   24  68.9 -99.9 1022.4 -9.9 -9.999 -99.9 -99.99 -9.99
2019/09/18 21:30 EDT  -99.99 -99.99   19   60   21  68.7 -99.9 1022.3 -9.9 -9.999 -99.9 -99.99 -9.99
2019/09/18 21:36 EDT  -99.99 -99.99   20   65   26  68.7 -99.9 1022.3 -9.9 -9.999 -99.9 -99.99 -9.99
2019/09/18 21:42 EDT  -99.99 -99.99   18   65   23  68.9 -99.9 1022.4 -9.9 -9.999 -99.9 -99.99 -9.99
2019/09/18 21:48 EDT  -99.99 -99.99   18   65   24  68.7 -99.9 1022.4 -9.9 -9.999 -99.9 -99.99 -9.99
2019/09/18 21:54 EDT  -99.99 -99.99   18   59   23  68.7 -99.9 1022.4 -9.9 -9.999 -99.9 -99.99 -9.99
2019/09/18 22:00 EDT  -99.99 -99.99   21   57   26  68.4 -99.9 1022.4 -9.9 -9.999 -99.9 -99.99 -9.99
2019/09/18 22:06 EDT  -99.99 -99.99   20   65   26  68.4 -99.9 1022.3 -9.9 -9.999 -99.9 -99.99 -9.99
2019/09/18 22:12 EDT  -99.99 -99.99   20   61   26  68.2 -99.9 1022.4 -9.9 -9.999 -99.9 -99.99 -9.99
2019/09/18 22:18 EDT  -99.99 -99.99   23   74   26  68.2 -99.9 1022.2 -9.9 -9.999 -99.9 -99.99 -9.99
2019/09/18 22:24 EDT  -99.99 -99.99   19   59   24  68.4 -99.9 1022.3 -9.9 -9.999 -99.9 -99.99 -9.99
2019/09/18 22:30 EDT  -99.99 -99.99   19   55   23  68.4 -99.9 1022.3 -9.9 -9.999 -99.9 -99.99 -9.99
2019/09/18 22:36 EDT  -99.99 -99.99   19   65   24  68.2 -99.9 1022.3 -9.9 -9.999 -99.9 -99.99 -9.99
2019/09/18 22:42 EDT  -99.99 -99.99   18   65   24  68.0 -99.9 1022.3 -9.9 -9.999 -99.9 -99.99 -9.99
2019/09/18 22:48 EDT  -99.99 -99.99   20   54   24  68.0 -99.9 1022.5 -9.9 -9.999 -99.9 -99.99 -9.99
2019/09/18 22:54 EDT  -99.99 -99.99   19   63   23  67.8 -99.9 1022.4 -9.9 -9.999 -99.9 -99.99 -9.99
2019/09/18 23:00 EDT  -99.99 -99.99   17   59   22  67.8 -99.9 1022.5 -9.9 -9.999 -99.9 -99.99 -9.99
2019/09/18 23:06 EDT  -99.99 -99.99   18   56   23  67.8 -99.9 1022.6 -9.9 -9.999 -99.9 -99.99 -9.99
2019/09/18 23:12 EDT  -99.99 -99.99   20   63   23  67.8 -99.9 1022.7 -9.9 -9.999 -99.9 -99.99 -9.99
2019/09/18 23:18 EDT  -99.99 -99.99   20   53   24  67.8 -99.9 1022.6 -9.9 -9.999 -99.9 -99.99 -9.99
2019/09/18 23:24 EDT  -99.99 -99.99   18   65   23  67.8 -99.9 1022.5 -9.9 -9.999 -99.9 -99.99 -9.99
2019/09/18 23:30 EDT  -99.99 -99.99   17   55   23  67.8 -99.9 1022.6 -9.9 -9.999 -99.9 -99.99 -9.99
2019/09/18 23:36 EDT  -99.99 -99.99   16   57   21  67.8 -99.9 1022.5 -9.9 -9.999 -99.9 -99.99 -9.99
2019/09/18 23:42 EDT  -99.99 -99.99   18   53   23  67.5 -99.9 1022.6 -9.9 -9.999 -99.9 -99.99 -9.99
2019/09/18 23:48 EDT  -99.99 -99.99   19   55   25  67.8 -99.9 1022.6 -9.9 -9.999 -99.9 -99.99 -9.99
2019/09/18 23:54 EDT  -99.99 -99.99   19   49   24  67.5 -99.9 1022.7 -9.9 -9.999 -99.9 -99.99 -9.99
2019/09/19 00:00 EDT  -99.99 -99.99   18   64   22  67.5 -99.9 1022.6 -9.9 -9.999 -99.9 -99.99 -9.99
2019/09/19 00:06 EDT  -99.99 -99.99   17   65   23  67.5 -99.9 1022.6 -9.9 -9.999 -99.9 -99.99 -9.99
2019/09/19 00:12 EDT  -99.99 -99.99   18   52   23  67.5 -99.9 1022.7 -9.9 -9.999 -99.9 -99.99 -9.99
2019/09/19 00:18 EDT  -99.99 -99.99   17   56   24  67.5 -99.9 1022.6 -9.9 -9.999 -99.9 -99.99 -9.99
2019/09/19 00:24 EDT  -99.99 -99.99   18   58   22  67.1 -99.9 1022.6 -9.9 -9.999 -99.9 -99.99 -9.99
2019/09/19 00:30 EDT  -99.99 -99.99   18   61   27  67.3 -99.9 1022.5 -9.9 -9.999 -99.9 -99.99 -9.99
2019/09/19 00:36 EDT  -99.99 -99.99   17   59   24  67.3 -99.9 1022.5 -9.9 -9.999 -99.9 -99.99 -9.99
2019/09/19 00:42 EDT  -99.99 -99.99   17   58   22  67.5 -99.9 1022.5 -9.9 -9.999 -99.9 -99.99 -9.99
2019/09/19 00:48 EDT  -99.99 -99.99   19   52   22  67.3 -99.9 1022.5 -9.9 -9.999 -99.9 -99.99 -9.99
2019/09/19 00:54 EDT  -99.99 -99.99   17   57   22  67.3 -99.9 1022.4 -9.9 -9.999 -99.9 -99.99 -9.99
2019/09/19 01:00 EDT  -99.99 -99.99   16   54   23  67.6 -99.9 1022.4 -9.9 -9.999 -99.9 -99.99 -9.99
2019/09/19 01:06 EDT  -99.99 -99.99   20   50   23  67.3 -99.9 1022.4 -9.9 -9.999 -99.9 -99.99 -9.99
2019/09/19 01:12 EDT  -99.99 -99.99   20   50   24  67.5 -99.9 1022.4 -9.9 -9.999 -99.9 -99.99 -9.99
2019/09/19 01:18 EDT  -99.99 -99.99   18   58   21  67.3 -99.9 1022.4 -9.9 -9.999 -99.9 -99.99 -9.99
2019/09/19 01:24 EDT  -99.99 -99.99   17   56   23  67.6 -99.9 1022.4 -9.9 -9.999 -99.9 -99.99 -9.99
2019/09/19 01:30 EDT  -99.99 -99.99   17   59   22  67.8 -99.9 1022.5 -9.9 -9.999 -99.9 -99.99 -9.99
2019/09/19 01:36 EDT  -99.99 -99.99   20   53   23  67.5 -99.9 1022.5 -9.9 -9.999 -99.9 -99.99 -9.99
2019/09/19 01:42 EDT  -99.99 -99.99   20   50   23  67.5 -99.9 1022.5 -9.9 -9.999 -99.9 -99.99 -9.99
2019/09/19 01:48 EDT  -99.99 -99.99   22   48   26  67.6 -99.9 1022.4 -9.9 -9.999 -99.9 -99.99 -9.99
2019/09/19 01:54 EDT  -99.99 -99.99   22   44   27  67.5 -99.9 1022.5 -9.9 -9.999 -99.9 -99.99 -9.99
2019/09/19 02:00 EDT  -99.99 -99.99   21   46   26  67.3 -99.9 1022.5 -9.9 -9.999 -99.9 -99.99 -9.99
2019/09/19 02:06 EDT  -99.99 -99.99   23   43   27  67.3 -99.9 1022.5 -9.9 -9.999 -99.9 -99.99 -9.99
2019/09/19 02:12 EDT  -99.99 -99.99   21   50   26  67.3 -99.9 1022.3 -9.9 -9.999 -99.9 -99.99 -9.99
2019/09/19 02:18 EDT  -99.99 -99.99   24   44   27  67.1 -99.9 1022.4 -9.9 -9.999 -99.9 -99.99 -9.99
2019/09/19 02:24 EDT  -99.99 -99.99   19   46   25  67.8 -99.9 1022.3 -9.9 -9.999 -99.9 -99.99 -9.99
2019/09/19 02:30 EDT  -99.99 -99.99   21   41   25  67.3 -99.9 1022.4 -9.9 -9.999 -99.9 -99.99 -9.99
2019/09/19 02:36 EDT  -99.99 -99.99   18   49   23  67.3 -99.9 1022.4 -9.9 -9.999 -99.9 -99.99 -9.99
2019/09/19 02:42 EDT  -99.99 -99.99   21   50   24  67.1 -99.9 1022.4 -9.9 -9.999 -99.9 -99.99 -9.99
2019/09/19 02:48 EDT  -99.99 -99.99   20   50   25  67.1 -99.9 1022.6 -9.9 -9.999 -99.9 -99.99 -9.99
2019/09/19 02:54 EDT  -99.99 -99.99   21   46   26  67.1 -99.9 1022.5 -9.9 -9.999 -99.9 -99.99 -9.99
2019/09/19 03:00 EDT  -99.99 -99.99   22   46   27  66.7 -99.9 1022.4 -9.9 -9.999 -99.9 -99.99 -9.99
2019/09/19 03:06 EDT  -99.99 -99.99   18   53   24  66.9 -99.9 1022.4 -9.9 -9.999 -99.9 -99.99 -9.99
2019/09/19 03:12 EDT  -99.99 -99.99   17   49   23  66.9 -99.9 1022.5 -9.9 -9.999 -99.9 -99.99 -9.99
2019/09/19 03:18 EDT  -99.99 -99.99   18   47   23  66.7 -99.9 1022.4 -9.9 -9.999 -99.9 -99.99 -9.99
2019/09/19 03:24 EDT  -99.99 -99.99   18   47   23  66.7 -99.9 1022.4 -9.9 -9.999 -99.9 -99.99 -9.99
2019/09/19 03:30 EDT  -99.99 -99.99   18   52   23  66.7 -99.9 1022.4 -9.9 -9.999 -99.9 -99.99 -9.99
2019/09/19 03:36 EDT  -99.99 -99.99   19   50   23  66.7 -99.9 1022.4 -9.9 -9.999 -99.9 -99.99 -9.99
2019/09/19 03:42 EDT  -99.99 -99.99   21   48   24  66.7 -99.9 1022.5 -9.9 -9.999 -99.9 -99.99 -9.99
2019/09/19 03:48 EDT  -99.99 -99.99   19   46   23  66.9 -99.9 1022.5 -9.9 -9.999 -99.9 -99.99 -9.99
2019/09/19 03:54 EDT  -99.99 -99.99   21   45   24  66.6 -99.9 1022.5 -9.9 -9.999 -99.9 -99.99 -9.99
2019/09/19 04:00 EDT  -99.99 -99.99   22   43   24  66.7 -99.9 1022.6 -9.9 -9.999 -99.9 -99.99 -9.99
2019/09/19 04:06 EDT  -99.99 -99.99   19   43   24  66.7 -99.9 1022.7 -9.9 -9.999 -99.9 -99.99 -9.99
2019/09/19 04:12 EDT  -99.99 -99.99   21   46   25  66.7 -99.9 1022.7 -9.9 -9.999 -99.9 -99.99 -9.99
2019/09/19 04:18 EDT  -99.99 -99.99   20   40   24  66.6 -99.9 1022.8 -9.9 -9.999 -99.9 -99.99 -9.99
2019/09/19 04:24 EDT  -99.99 -99.99   19   50   23  66.7 -99.9 1022.8 -9.9 -9.999 -99.9 -99.99 -9.99
2019/09/19 04:30 EDT  -99.99 -99.99   22   44   24  66.4 -99.9 1022.8 -9.9 -9.999 -99.9 -99.99 -9.99
2019/09/19 04:36 EDT  -99.99 -99.99   19   51   24  66.6 -99.9 1022.8 -9.9 -9.999 -99.9 -99.99 -9.99
2019/09/19 04:42 EDT  -99.99 -99.99   21   42   24  66.2 -99.9 1022.9 -9.9 -9.999 -99.9 -99.99 -9.99
2019/09/19 04:48 EDT  -99.99 -99.99   19   50   22  66.4 -99.9 1022.8 -9.9 -9.999 -99.9 -99.99 -9.99
2019/09/19 04:54 EDT  -99.99 -99.99   19   45   22  66.6 -99.9 1022.8 -9.9 -9.999 -99.9 -99.99 -9.99
2019/09/19 05:00 EDT  -99.99 -99.99   20   39   23  66.6 -99.9 1023.0 -9.9 -9.999 -99.9 -99.99 -9.99
2019/09/19 05:06 EDT  -99.99 -99.99   20   32   24  66.4 -99.9 1023.1 -9.9 -9.999 -99.9 -99.99 -9.99
2019/09/19 05:12 EDT  -99.99 -99.99   19   36   24  66.6 -99.9 1023.0 -9.9 -9.999 -99.9 -99.99 -9.99
2019/09/19 05:18 EDT  -99.99 -99.99   20   39   24  66.4 -99.9 1023.0 -9.9 -9.999 -99.9 -99.99 -9.99
2019/09/19 05:24 EDT  -99.99 -99.99   20   34   24  66.6 -99.9 1023.0 -9.9 -9.999 -99.9 -99.99 -9.99
2019/09/19 05:30 EDT  -99.99 -99.99   20   34   24  66.4 -99.9 1023.1 -9.9 -9.999 -99.9 -99.99 -9.99
2019/09/19 05:36 EDT  -99.99 -99.99   19   33   24  66.4 -99.9 1023.2 -9.9 -9.999 -99.9 -99.99 -9.99
2019/09/19 05:42 EDT  -99.99 -99.99   18   38   25  66.4 -99.9 1023.2 -9.9 -9.999 -99.9 -99.99 -9.99
2019/09/19 05:48 EDT  -99.99 -99.99   16   49   23  66.6 -99.9 1023.2 -9.9 -9.999 -99.9 -99.99 -9.99
2019/09/19 05:54 EDT  -99.99 -99.99   19   33   25  66.4 -99.9 1023.3 -9.9 -9.999 -99.9 -99.99 -9.99
2019/09/19 06:00 EDT  -99.99 -99.99   19   34   23  66.2 -99.9 1023.3 -9.9 -9.999 -99.9 -99.99 -9.99
2019/09/19 06:06 EDT  -99.99 -99.99   20   44   26  66.2 -99.9 1023.4 -9.9 -9.999 -99.9 -99.99 -9.99
2019/09/19 06:12 EDT  -99.99 -99.99   21   40   24  65.8 -99.9 1023.5 -9.9 -9.999 -99.9 -99.99 -9.99
2019/09/19 06:18 EDT  -99.99 -99.99   20   36   25  66.0 -99.9 1023.6 -9.9 -9.999 -99.9 -99.99 -9.99
2019/09/19 06:24 EDT  -99.99 -99.99   19   38   25  66.2 -99.9 1023.7 -9.9 -9.999 -99.9 -99.99 -9.99
2019/09/19 06:30 EDT  -99.99 -99.99   18   49   23  65.8 -99.9 1023.7 -9.9 -9.999 -99.9 -99.99 -9.99
2019/09/19 06:36 EDT  -99.99 -99.99   21   34   23  66.0 -99.9 1023.8 -9.9 -9.999 -99.9 -99.99 -9.99
2019/09/19 06:42 EDT  -99.99 -99.99   21   38   24  66.2 -99.9 1023.8 -9.9 -9.999 -99.9 -99.99 -9.99
2019/09/19 06:48 EDT  -99.99 -99.99   20   36   24  66.0 -99.9 1023.9 -9.9 -9.999 -99.9 -99.99 -9.99
2019/09/19 06:54 EDT  -99.99 -99.99   21   41   24  66.0 -99.9 1023.9 -9.9 -9.999 -99.9 -99.99 -9.99
2019/09/19 07:00 EDT  -99.99 -99.99   19   37   23  66.0 -99.9 1023.9 -9.9 -9.999 -99.9 -99.99 -9.99
2019/09/19 07:06 EDT  -99.99 -99.99   21   31   25  65.8 -99.9 1024.0 -9.9 -9.999 -99.9 -99.99 -9.99
2019/09/19 07:12 EDT  -99.99 -99.99   19   34   23  65.8 -99.9 1024.1 -9.9 -9.999 -99.9 -99.99 -9.99
2019/09/19 07:18 EDT  -99.99 -99.99   20   32   24  65.8 -99.9 1024.1 -9.9 -9.999 -99.9 -99.99 -9.99
2019/09/19 07:24 EDT  -99.99 -99.99   20   32   24  65.7 -99.9 1024.1 -9.9 -9.999 -99.9 -99.99 -9.99
2019/09/19 07:30 EDT  -99.99 -99.99   21   31   25  65.7 -99.9 1024.1 -9.9 -9.999 -99.9 -99.99 -9.99
2019/09/19 07:36 EDT  -99.99 -99.99   22   32   25  65.7 -99.9 1024.2 -9.9 -9.999 -99.9 -99.99 -9.99
2019/09/19 07:42 EDT  -99.99 -99.99   21   31   25  66.0 -99.9 1024.2 -9.9 -9.999 -99.9 -99.99 -9.99
2019/09/19 07:48 EDT  -99.99 -99.99   20   30   23  65.8 -99.9 1024.2 -9.9 -9.999 -99.9 -99.99 -9.99
2019/09/19 07:54 EDT  -99.99 -99.99   20   32   25  65.8 -99.9 1024.3 -9.9 -9.999 -99.9 -99.99 -9.99
2019/09/19 08:00 EDT  -99.99 -99.99   22   36   25  65.8 -99.9 1024.3 -9.9 -9.999 -99.9 -99.99 -9.99
2019/09/19 08:06 EDT  -99.99 -99.99   20   41   26  65.7 -99.9 1024.4 -9.9 -9.999 -99.9 -99.99 -9.99
2019/09/19 08:12 EDT  -99.99 -99.99   21   40   25  65.7 -99.9 1024.4 -9.9 -9.999 -99.9 -99.99 -9.99
2019/09/19 08:18 EDT  -99.99 -99.99   21   40   27  65.7 -99.9 1024.3 -9.9 -9.999 -99.9 -99.99 -9.99
2019/09/19 08:24 EDT  -99.99 -99.99   22   36   25  65.7 -99.9 1024.4 -9.9 -9.999 -99.9 -99.99 -9.99
2019/09/19 08:30 EDT  -99.99 -99.99   21   36   23  66.0 -99.9 1024.4 -9.9 -9.999 -99.9 -99.99 -9.99
2019/09/19 08:36 EDT  -99.99 -99.99   21   37   25  66.0 -99.9 1024.4 -9.9 -9.999 -99.9 -99.99 -9.99
2019/09/19 08:42 EDT  -99.99 -99.99   23   43   26  66.0 -99.9 1024.5 -9.9 -9.999 -99.9 -99.99 -9.99
2019/09/19 08:48 EDT  -99.99 -99.99   20   45   24  65.8 -99.9 1024.6 -9.9 -9.999 -99.9 -99.99 -9.99
2019/09/19 08:54 EDT  -99.99 -99.99   20   43   24  65.8 -99.9 1024.6 -9.9 -9.999 -99.9 -99.99 -9.99
2019/09/19 09:00 EDT  -99.99 -99.99   20   45   24  65.8 -99.9 1024.6 -9.9 -9.999 -99.9 -99.99 -9.99
2019/09/19 09:06 EDT  -99.99 -99.99   19   48   21  65.8 -99.9 1024.6 -9.9 -9.999 -99.9 -99.99 -9.99
2019/09/19 09:12 EDT  -99.99 -99.99   16   46   22  66.6 -99.9 1024.7 -9.9 -9.999 -99.9 -99.99 -9.99
2019/09/19 09:18 EDT  -99.99 -99.99   13   66   19  66.2 -99.9 1024.6 -9.9 -9.999 -99.9 -99.99 -9.99
2019/09/19 09:24 EDT  -99.99 -99.99   12   53   19  66.2 -99.9 1024.8 -9.9 -9.999 -99.9 -99.99 -9.99
2019/09/19 09:30 EDT  -99.99 -99.99   15   49   21  66.2 -99.9 1024.8 -9.9 -9.999 -99.9 -99.99 -9.99
2019/09/19 09:36 EDT  -99.99 -99.99   16   43   21  66.0 -99.9 1024.9 -9.9 -9.999 -99.9 -99.99 -9.99
2019/09/19 09:42 EDT  -99.99 -99.99   16   46   20  65.8 -99.9 1024.8 -9.9 -9.999 -99.9 -99.99 -9.99
2019/09/19 09:48 EDT  -99.99 -99.99   16   44   21  66.0 -99.9 1024.9 -9.9 -9.999 -99.9 -99.99 -9.99
2019/09/19 09:54 EDT  -99.99 -99.99   15   39   19  66.0 -99.9 1024.9 -9.9 -9.999 -99.9 -99.99 -9.99
2019/09/19 10:00 EDT  -99.99 -99.99   16   41   19  65.8 -99.9 1025.0 -9.9 -9.999 -99.9 -99.99 -9.99
2019/09/19 10:06 EDT  -99.99 -99.99   14   49   19  65.8 -99.9 1025.1 -9.9 -9.999 -99.9 -99.99 -9.99
2019/09/19 10:12 EDT  -99.99 -99.99   14   52   17  66.0 -99.9 1025.0 -9.9 -9.999 -99.9 -99.99 -9.99
2019/09/19 10:18 EDT  -99.99 -99.99   17   43   20  66.2 -99.9 1025.1 -9.9 -9.999 -99.9 -99.99 -9.99
2019/09/19 10:24 EDT  -99.99 -99.99   12   51   18  66.4 -99.9 1025.2 -9.9 -9.999 -99.9 -99.99 -9.99
2019/09/19 10:30 EDT  -99.99 -99.99   14   44   19  66.4 -99.9 1025.2 -9.9 -9.999 -99.9 -99.99 -9.99
2019/09/19 10:36 EDT  -99.99 -99.99   14   68   17  66.7 -99.9 1025.2 -9.9 -9.999 -99.9 -99.99 -9.99
2019/09/19 10:42 EDT  -99.99 -99.99   15   28   20  66.2 -99.9 1025.4 -9.9 -9.999 -99.9 -99.99 -9.99
2019/09/19 10:48 EDT  -99.99 -99.99   17   33   20  66.0 -99.9 1025.5 -9.9 -9.999 -99.9 -99.99 -9.99
2019/09/19 10:54 EDT  -99.99 -99.99   17   20   20  66.0 -99.9 1025.6 -9.9 -9.999 -99.9 -99.99 -9.99
2019/09/19 11:00 EDT  -99.99 -99.99   17   30   20  65.8 -99.9 1025.6 -9.9 -9.999 -99.9 -99.99 -9.99
2019/09/19 11:06 EDT  -99.99 -99.99   17   36   19  65.8 -99.9 1025.6 -9.9 -9.999 -99.9 -99.99 -9.99
2019/09/19 11:12 EDT  -99.99 -99.99   17   42   21  66.0 -99.9 1025.6 -9.9 -9.999 -99.9 -99.99 -9.99
2019/09/19 11:18 EDT  -99.99 -99.99   15   39   19  66.0 -99.9 1025.6 -9.9 -9.999 -99.9 -99.99 -9.99
2019/09/19 11:24 EDT  -99.99 -99.99   17   30   20  65.8 -99.9 1025.6 -9.9 -9.999 -99.9 -99.99 -9.99
2019/09/19 11:30 EDT  -99.99 -99.99   14   48   19  66.0 -99.9 1025.6 -9.9 -9.999 -99.9 -99.99 -9.99
2019/09/19 11:36 EDT  -99.99 -99.99   17   39   20  65.8 -99.9 1025.7 -9.9 -9.999 -99.9 -99.99 -9.99
2019/09/19 11:42 EDT  -99.99 -99.99   15   49   18  66.2 -99.9 1025.7 -9.9 -9.999 -99.9 -99.99 -9.99
2019/09/19 11:48 EDT  -99.99 -99.99   14   48   17  66.0 -99.9 1025.8 -9.9 -9.999 -99.9 -99.99 -9.99
2019/09/19 11:54 EDT  -99.99 -99.99   15   42   20  66.0 -99.9 1025.7 -9.9 -9.999 -99.9 -99.99 -9.99
2019/09/19 12:00 EDT  -99.99 -99.99   15   29   18  66.0 -99.9 1025.8 -9.9 -9.999 -99.9 -99.99 -9.99
2019/09/19 12:06 EDT  -99.99 -99.99   15   22   18  66.0 -99.9 1025.7 -9.9 -9.999 -99.9 -99.99 -9.99
2019/09/19 12:12 EDT  -99.99 -99.99   14   33   18  66.0 -99.9 1025.7 -9.9 -9.999 -99.9 -99.99 -9.99
2019/09/19 12:18 EDT  -99.99 -99.99   16   22   19  66.4 -99.9 1025.7 -9.9 -9.999 -99.9 -99.99 -9.99
2019/09/19 12:24 EDT  -99.99 -99.99   16   37   19  66.4 -99.9 1025.7 -9.9 -9.999 -99.9 -99.99 -9.99
2019/09/19 12:30 EDT  -99.99 -99.99   16   43   18  66.4 -99.9 1025.6 -9.9 -9.999 -99.9 -99.99 -9.99
2019/09/19 12:36 EDT  -99.99 -99.99   14   29   19  66.4 -99.9 1025.7 -9.9 -9.999 -99.9 -99.99 -9.99
2019/09/19 12:42 EDT  -99.99 -99.99   14   27   18  66.4 -99.9 1025.6 -9.9 -9.999 -99.9 -99.99 -9.99
2019/09/19 12:48 EDT  -99.99 -99.99   13   36   17  66.7 -99.9 1025.5 -9.9 -9.999 -99.9 -99.99 -9.99
2019/09/19 12:54 EDT  -99.99 -99.99   14   50   17  66.7 -99.9 1025.4 -9.9 -9.999 -99.9 -99.99 -9.99
2019/09/19 13:00 EDT  -99.99 -99.99   15   49   17  66.7 -99.9 1025.5 -9.9 -9.999 -99.9 -99.99 -9.99
2019/09/19 13:06 EDT  -99.99 -99.99   16   47   21  66.7 -99.9 1025.5 -9.9 -9.999 -99.9 -99.99 -9.99
2019/09/19 13:12 EDT  -99.99 -99.99   14   40   17  66.6 -99.9 1025.4 -9.9 -9.999 -99.9 -99.99 -9.99
2019/09/19 13:18 EDT  -99.99 -99.99   12   41   15  66.7 -99.9 1025.4 -9.9 -9.999 -99.9 -99.99 -9.99
2019/09/19 13:24 EDT  -99.99 -99.99   11   39   16  67.1 -99.9 1025.4 -9.9 -9.999 -99.9 -99.99 -9.99
2019/09/19 13:30 EDT  -99.99 -99.99   13   53   15  66.9 -99.9 1025.3 -9.9 -9.999 -99.9 -99.99 -9.99
2019/09/19 13:36 EDT  -99.99 -99.99   14   36   16  66.9 -99.9 1025.4 -9.9 -9.999 -99.9 -99.99 -9.99
2019/09/19 13:42 EDT  -99.99 -99.99   13   36   17  66.9 -99.9 1025.4 -9.9 -9.999 -99.9 -99.99 -9.99
2019/09/19 13:48 EDT  -99.99 -99.99   13   34   16  66.7 -99.9 1025.5 -9.9 -9.999 -99.9 -99.99 -9.99
2019/09/19 13:54 EDT  -99.99 -99.99   14   27   17  66.7 -99.9 1025.4 -9.9 -9.999 -99.9 -99.99 -9.99
2019/09/19 14:00 EDT  -99.99 -99.99   14   24   16  66.7 -99.9 1025.3 -9.9 -9.999 -99.9 -99.99 -9.99
2019/09/19 14:06 EDT  -99.99 -99.99   15   28   17  66.7 -99.9 1025.3 -9.9 -9.999 -99.9 -99.99 -9.99
2019/09/19 14:12 EDT  -99.99 -99.99   13   30   16  66.6 -99.9 1025.3 -9.9 -9.999 -99.9 -99.99 -9.99
2019/09/19 14:18 EDT  -99.99 -99.99   16   33   17  66.6 -99.9 1025.3 -9.9 -9.999 -99.9 -99.99 -9.99
2019/09/19 14:24 EDT  -99.99 -99.99   15   31   17  66.6 -99.9 1025.3 -9.9 -9.999 -99.9 -99.99 -9.99
2019/09/19 14:30 EDT  -99.99 -99.99   14   32   17  66.7 -99.9 1025.3 -9.9 -9.999 -99.9 -99.99 -9.99
2019/09/19 14:36 EDT  -99.99 -99.99   14   24   16  66.6 -99.9 1025.4 -9.9 -9.999 -99.9 -99.99 -9.99
2019/09/19 14:42 EDT  -99.99 -99.99   15   29   17  66.9 -99.9 1025.2 -9.9 -9.999 -99.9 -99.99 -9.99
2019/09/19 14:48 EDT  -99.99 -99.99   13   28   17  66.7 -99.9 1025.2 -9.9 -9.999 -99.9 -99.99 -9.99
2019/09/19 14:54 EDT  -99.99 -99.99   14   32   17  66.9 -99.9 1025.2 -9.9 -9.999 -99.9 -99.99 -9.99
2019/09/19 15:00 EDT  -99.99 -99.99   13   25   17  67.1 -99.9 1025.2 -9.9 -9.999 -99.9 -99.99 -9.99
2019/09/19 15:06 EDT  -99.99 -99.99   13   31   17  66.7 -99.9 1025.1 -9.9 -9.999 -99.9 -99.99 -9.99
2019/09/19 15:12 EDT  -99.99 -99.99   12   26   15  66.9 -99.9 1025.0 -9.9 -9.999 -99.9 -99.99 -9.99
2019/09/19 15:18 EDT  -99.99 -99.99   12   22   16  66.7 -99.9 1024.9 -9.9 -9.999 -99.9 -99.99 -9.99
2019/09/19 15:24 EDT  -99.99 -99.99   15   28   17  66.7 -99.9 1024.9 -9.9 -9.999 -99.9 -99.99 -9.99
2019/09/19 15:30 EDT  -99.99 -99.99   12   16   16  66.9 -99.9 1024.9 -9.9 -9.999 -99.9 -99.99 -9.99
2019/09/19 15:36 EDT  -99.99 -99.99   12    8   15  67.3 -99.9 1024.9 -9.9 -9.999 -99.9 -99.99 -9.99
2019/09/19 15:42 EDT  -99.99 -99.99   10   21   16  67.1 -99.9 1024.9 -9.9 -9.999 -99.9 -99.99 -9.99
2019/09/19 15:48 EDT  -99.99 -99.99   11   10   14  67.3 -99.9 1024.9 -9.9 -9.999 -99.9 -99.99 -9.99
2019/09/19 15:54 EDT  -99.99 -99.99   12   16   15  67.3 -99.9 1024.9 -9.9 -9.999 -99.9 -99.99 -9.99
2019/09/19 16:00 EDT  -99.99 -99.99   11   10   14  67.6 -99.9 1024.8 -9.9 -9.999 -99.9 -99.99 -9.99
2019/09/19 16:06 EDT  -99.99 -99.99   10   28   14  67.3 -99.9 1024.8 -9.9 -9.999 -99.9 -99.99 -9.99
2019/09/19 16:12 EDT  -99.99 -99.99   13   14   15  67.1 -99.9 1024.9 -9.9 -9.999 -99.9 -99.99 -9.99
2019/09/19 16:18 EDT  -99.99 -99.99   12    1   15  67.3 -99.9 1024.9 -9.9 -9.999 -99.9 -99.99 -9.99
2019/09/19 16:24 EDT  -99.99 -99.99   11   24   14  67.3 -99.9 1025.0 -9.9 -9.999 -99.9 -99.99 -9.99
2019/09/19 16:30 EDT  -99.99 -99.99   13   29   16  67.1 -99.9 1024.9 -9.9 -9.999 -99.9 -99.99 -9.99
2019/09/19 16:36 EDT  -99.99 -99.99   11   21   14  67.3 -99.9 1024.9 -9.9 -9.999 -99.9 -99.99 -9.99
2019/09/19 16:42 EDT  -99.99 -99.99   10   24   15  67.3 -99.9 1024.8 -9.9 -9.999 -99.9 -99.99 -9.99
2019/09/19 16:48 EDT  -99.99 -99.99   12   22   15  67.3 -99.9 1024.9 -9.9 -9.999 -99.9 -99.99 -9.99
2019/09/19 16:54 EDT  -99.99 -99.99   12   16   17  66.9 -99.9 1024.9 -9.9 -9.999 -99.9 -99.99 -9.99
2019/09/19 17:00 EDT  -99.99 -99.99   13   12   17  67.1 -99.9 1024.8 -9.9 -9.999 -99.9 -99.99 -9.99
2019/09/19 17:06 EDT  -99.99 -99.99   12    4   16  67.1 -99.9 1024.8 -9.9 -9.999 -99.9 -99.99 -9.99
2019/09/19 17:12 EDT  -99.99 -99.99   10   23   13  67.5 -99.9 1024.8 -9.9 -9.999 -99.9 -99.99 -9.99
2019/09/19 17:18 EDT  -99.99 -99.99   11   28   14  67.3 -99.9 1024.8 -9.9 -9.999 -99.9 -99.99 -9.99
2019/09/19 17:24 EDT  -99.99 -99.99   11   20   13  67.6 -99.9 1024.8 -9.9 -9.999 -99.9 -99.99 -9.99
2019/09/19 17:30 EDT  -99.99 -99.99   12    5   17  66.9 -99.9 1024.8 -9.9 -9.999 -99.9 -99.99 -9.99
2019/09/19 17:36 EDT  -99.99 -99.99   12    6   13  67.3 -99.9 1024.9 -9.9 -9.999 -99.9 -99.99 -9.99
2019/09/19 17:42 EDT  -99.99 -99.99   11    7   17  67.5 -99.9 1024.9 -9.9 -9.999 -99.9 -99.99 -9.99
2019/09/19 17:48 EDT  -99.99 -99.99    9    1   13  67.3 -99.9 1024.9 -9.9 -9.999 -99.9 -99.99 -9.99
2019/09/19 17:54 EDT  -99.99 -99.99   11   11   14  67.3 -99.9 1024.9 -9.9 -9.999 -99.9 -99.99 -9.99
2019/09/19 18:00 EDT  -99.99 -99.99   11   16   14  67.5 -99.9 1024.9 -9.9 -9.999 -99.9 -99.99 -9.99
2019/09/19 18:06 EDT  -99.99 -99.99   12   11   15  67.5 -99.9 1025.0 -9.9 -9.999 -99.9 -99.99 -9.99
2019/09/19 18:12 EDT  -99.99 -99.99   11   61   15  67.8 -99.9 1024.9 -9.9 -9.999 -99.9 -99.99 -9.99
2019/09/19 18:18 EDT  -99.99 -99.99   11   53   14  67.5 -99.9 1024.9 -9.9 -9.999 -99.9 -99.99 -9.99
2019/09/19 18:24 EDT  -99.99 -99.99    8   74   11  67.6 -99.9 1024.9 -9.9 -9.999 -99.9 -99.99 -9.99
2019/09/19 18:30 EDT  -99.99 -99.99    6   71   13  67.6 -99.9 1024.9 -9.9 -9.999 -99.9 -99.99 -9.99
2019/09/19 18:36 EDT  -99.99 -99.99    8   82   11  67.5 -99.9 1024.9 -9.9 -9.999 -99.9 -99.99 -9.99
2019/09/19 18:42 EDT  -99.99 -99.99    9   70   11  67.8 -99.9 1024.8 -9.9 -9.999 -99.9 -99.99 -9.99
2019/09/19 18:48 EDT  -99.99 -99.99    6   78   12  67.5 -99.9 1024.8 -9.9 -9.999 -99.9 -99.99 -9.99
2019/09/19 18:54 EDT  -99.99 -99.99    6   76   11  67.6 -99.9 1024.7 -9.9 -9.999 -99.9 -99.99 -9.99
2019/09/19 19:00 EDT  -99.99 -99.99    8   91   10  67.6 -99.9 1024.6 -9.9 -9.999 -99.9 -99.99 -9.99
2019/09/19 19:06 EDT  -99.99 -99.99    9   68   11  67.3 -99.9 1024.6 -9.9 -9.999 -99.9 -99.99 -9.99
2019/09/19 19:12 EDT  -99.99 -99.99   10   89   12  67.3 -99.9 1024.6 -9.9 -9.999 -99.9 -99.99 -9.99
2019/09/19 19:18 EDT  -99.99 -99.99    7   88   10  67.5 -99.9 1024.6 -9.9 -9.999 -99.9 -99.99 -9.99
2019/09/19 19:24 EDT  -99.99 -99.99    8   67   12  67.5 -99.9 1024.7 -9.9 -9.999 -99.9 -99.99 -9.99
2019/09/19 19:30 EDT  -99.99 -99.99    9   80   11  67.6 -99.9 1024.7 -9.9 -9.999 -99.9 -99.99 -9.99
2019/09/19 19:36 EDT  -99.99 -99.99    9   77   12  67.3 -99.9 1024.6 -9.9 -9.999 -99.9 -99.99 -9.99
2019/09/19 19:42 EDT  -99.99 -99.99   10   79   12  67.3 -99.9 1024.7 -9.9 -9.999 -99.9 -99.99 -9.99
2019/09/19 19:48 EDT  -99.99 -99.99   10   83   13  67.3 -99.9 1024.7 -9.9 -9.999 -99.9 -99.99 -9.99
2019/09/19 19:54 EDT  -99.99 -99.99   10   83   14  67.3 -99.9 1024.7 -9.9 -9.999 -99.9 -99.99 -9.99
2019/09/19 20:00 EDT  -99.99 -99.99    8   84   13  67.1 -99.9 1024.8 -9.9 -9.999 -99.9 -99.99 -9.99
2019/09/19 20:06 EDT  -99.99 -99.99   10   78   12  67.3 -99.9 1024.8 -9.9 -9.999 -99.9 -99.99 -9.99
2019/09/19 20:12 EDT  -99.99 -99.99   11   78   13  67.3 -99.9 1024.9 -9.9 -9.999 -99.9 -99.99 -9.99
2019/09/19 20:18 EDT  -99.99 -99.99   10   80   15  66.9 -99.9 1025.0 -9.9 -9.999 -99.9 -99.99 -9.99
2019/09/19 20:24 EDT  -99.99 -99.99    8   57   11  67.3 -99.9 1025.1 -9.9 -9.999 -99.9 -99.99 -9.99
2019/09/19 20:30 EDT  -99.99 -99.99    8   64   11  67.1 -99.9 1025.1 -9.9 -9.999 -99.9 -99.99 -9.99
2019/09/19 20:36 EDT  -99.99 -99.99    9   80   12  67.1 -99.9 1025.2 -9.9 -9.999 -99.9 -99.99 -9.99
2019/09/19 20:42 EDT  -99.99 -99.99    9   52   13  67.1 -99.9 1025.4 -9.9 -9.999 -99.9 -99.99 -9.99
2019/09/19 20:48 EDT  -99.99 -99.99    9   52   13  67.3 -99.9 1025.5 -9.9 -9.999 -99.9 -99.99 -9.99
2019/09/19 20:54 EDT  -99.99 -99.99   10   55   13  66.9 -99.9 1025.6 -9.9 -9.999 -99.9 -99.99 -9.99
2019/09/19 21:00 EDT  -99.99 -99.99   10   76   11  66.9 -99.9 1025.7 -9.9 -9.999 -99.9 -99.99 -9.99
2019/09/19 21:06 EDT  -99.99 -99.99    9   61   13  67.1 -99.9 1025.7 -9.9 -9.999 -99.9 -99.99 -9.99
2019/09/19 21:12 EDT  -99.99 -99.99   10   48   12  66.9 -99.9 1025.8 -9.9 -9.999 -99.9 -99.99 -9.99
2019/09/19 21:18 EDT  -99.99 -99.99   10   49   13  66.9 -99.9 1025.8 -9.9 -9.999 -99.9 -99.99 -9.99
2019/09/19 21:24 EDT  -99.99 -99.99    9   51   12  66.9 -99.9 1025.7 -9.9 -9.999 -99.9 -99.99 -9.99
2019/09/19 21:30 EDT  -99.99 -99.99    8   67   11  67.1 -99.9 1025.7 -9.9 -9.999 -99.9 -99.99 -9.99
2019/09/19 21:36 EDT  -99.99 -99.99   10   69   12  67.3 -99.9 1025.6 -9.9 -9.999 -99.9 -99.99 -9.99
2019/09/19 21:42 EDT  -99.99 -99.99    9   62   13  66.9 -99.9 1025.5 -9.9 -9.999 -99.9 -99.99 -9.99
2019/09/19 21:48 EDT  -99.99 -99.99    7   64   12  66.6 -99.9 1025.4 -9.9 -9.999 -99.9 -99.99 -9.99
2019/09/19 21:54 EDT  -99.99 -99.99    8   62   12  66.9 -99.9 1025.3 -9.9 -9.999 -99.9 -99.99 -9.99
2019/09/19 22:00 EDT  -99.99 -99.99    8   62   11  66.7 -99.9 1025.2 -9.9 -9.999 -99.9 -99.99 -9.99
2019/09/19 22:06 EDT  -99.99 -99.99    6   69   10  66.6 -99.9 1025.2 -9.9 -9.999 -99.9 -99.99 -9.99
2019/09/19 22:12 EDT  -99.99 -99.99    9   84   10  66.7 -99.9 1025.2 -9.9 -9.999 -99.9 -99.99 -9.99
2019/09/19 22:18 EDT  -99.99 -99.99    9   84   11  66.6 -99.9 1025.2 -9.9 -9.999 -99.9 -99.99 -9.99
2019/09/19 22:24 EDT  -99.99 -99.99    7   65   11  66.6 -99.9 1025.3 -9.9 -9.999 -99.9 -99.99 -9.99
2019/09/19 22:30 EDT  -99.99 -99.99    7   60   11  66.7 -99.9 1025.3 -9.9 -9.999 -99.9 -99.99 -9.99
2019/09/19 22:36 EDT  -99.99 -99.99    8   68   11  66.4 -99.9 1025.2 -9.9 -9.999 -99.9 -99.99 -9.99
2019/09/19 22:42 EDT  -99.99 -99.99    7   86   11  66.6 -99.9 1025.2 -9.9 -9.999 -99.9 -99.99 -9.99
2019/09/19 22:48 EDT  -99.99 -99.99    8   78   12  66.6 -99.9 1025.1 -9.9 -9.999 -99.9 -99.99 -9.99
2019/09/19 22:54 EDT  -99.99 -99.99    7   63   11  66.4 -99.9 1025.1 -9.9 -9.999 -99.9 -99.99 -9.99
2019/09/19 23:00 EDT  -99.99 -99.99    5   68   10  66.4 -99.9 1025.2 -9.9 -9.999 -99.9 -99.99 -9.99
2019/09/19 23:06 EDT  -99.99 -99.99    6   79    9  66.7 -99.9 1025.1 -9.9 -9.999 -99.9 -99.99 -9.99
2019/09/19 23:12 EDT  -99.99 -99.99    5   86    9  66.4 -99.9 1025.1 -9.9 -9.999 -99.9 -99.99 -9.99
2019/09/19 23:18 EDT  -99.99 -99.99    4   78    6  66.4 -99.9 1025.0 -9.9 -9.999 -99.9 -99.99 -9.99
2019/09/19 23:24 EDT  -99.99 -99.99    7   97   10  66.6 -99.9 1025.0 -9.9 -9.999 -99.9 -99.99 -9.99
2019/09/19 23:30 EDT  -99.99 -99.99    7   80   11  66.4 -99.9 1025.0 -9.9 -9.999 -99.9 -99.99 -9.99
2019/09/19 23:36 EDT  -99.99 -99.99 -999 -999 -999 -99.9 -99.9 -999.9 -9.9 -9.999 -99.9 -99.99 -9.99
2019/09/19 23:42 EDT  -99.99 -99.99 -999 -999 -999 -99.9 -99.9 -999.9 -9.9 -9.999 -99.9 -99.99 -9.99
2019/09/19 23:48 EDT  -99.99 -99.99 -999 -999 -999 -99.9 -99.9 -999.9 -9.9 -9.999 -99.9 -99.99 -9.99